Time,TemperatureF,DewpointF,PressureIn,WindDirection,WindDirectionDegrees,WindSpeedMPH,WindSpeedGustMPH,Humidity,HourlyPrecipIn,Conditions,Clouds,dailyrainin,SoftwareType,DateUTC
2013-05-09 00:01:00,58.1,52.0,29.93,NE,38,6.0,8.0,80,0.00,,,0.03,Wunderground v.1.13,2013-05-09 05:01:00,
2013-05-09 00:02:00,58.0,51.9,29.93,NNE,20,6.0,8.0,80,0.00,,,0.00,Wunderground v.1.13,2013-05-09 05:02:00,
2013-05-09 00:03:00,58.0,51.9,29.93,NNE,20,6.0,8.0,80,0.00,,,0.00,Wunderground v.1.13,2013-05-09 05:03:00,
2013-05-09 00:06:00,58.0,51.9,29.93,NE,48,6.0,6.0,80,0.00,,,0.00,Wunderground v.1.13,2013-05-09 05:06:00,
2013-05-09 00:08:00,58.0,51.9,29.93,NNE,32,6.0,6.0,80,0.00,,,0.00,Wunderground v.1.13,2013-05-09 05:08:00,
2013-05-09 00:09:00,58.0,51.9,29.93,NNE,32,6.0,6.0,80,0.00,,,0.00,Wunderground v.1.13,2013-05-09 05:09:00,
2013-05-09 00:10:00,58.0,51.9,29.93,NE,41,6.0,6.0,80,0.00,,,0.00,Wunderground v.1.13,2013-05-09 05:10:00,
2013-05-09 00:12:00,58.0,51.9,29.93,NE,45,6.0,7.0,80,0.00,,,0.01,Wunderground v.1.13,2013-05-09 05:12:00,
2013-05-09 00:13:00,58.0,51.9,29.93,NE,41,6.0,7.0,80,0.00,,,0.01,Wunderground v.1.13,2013-05-09 05:13:00,
2013-05-09 00:14:00,58.0,51.9,29.93,ENE,67,6.0,7.0,80,0.00,,,0.01,Wunderground v.1.13,2013-05-09 05:14:00,
2013-05-09 00:18:00,57.9,51.8,29.93,ENE,63,5.0,5.0,80,0.00,,,0.01,Wunderground v.1.13,2013-05-09 05:18:00,
2013-05-09 00:19:00,57.9,51.8,29.94,ENE,68,5.0,5.0,80,0.00,,,0.01,Wunderground v.1.13,2013-05-09 05:19:00,
2013-05-09 00:20:00,57.9,51.8,29.94,ENE,63,5.0,5.0,80,0.00,,,0.01,Wunderground v.1.13,2013-05-09 05:20:00,
2013-05-09 00:21:00,57.8,51.7,29.94,NE,46,5.0,6.0,80,0.00,,,0.01,Wunderground v.1.13,2013-05-09 05:21:00,
2013-05-09 00:24:00,57.7,51.9,29.93,NE,37,4.0,6.0,81,0.00,,,0.01,Wunderground v.1.13,2013-05-09 05:24:00,
2013-05-09 00:27:00,57.7,51.9,29.93,NE,37,4.0,4.0,81,0.00,,,0.01,Wunderground v.1.13,2013-05-09 05:27:00,
2013-05-09 00:28:00,57.6,51.8,29.93,NE,40,4.0,5.0,81,0.00,,,0.01,Wunderground v.1.13,2013-05-09 05:28:00,
2013-05-09 00:29:00,57.6,51.8,29.93,NE,45,4.0,5.0,81,0.00,,,0.01,Wunderground v.1.13,2013-05-09 05:29:00,
2013-05-09 00:32:00,57.5,51.7,29.93,NE,46,4.0,6.0,81,0.00,,,0.01,Wunderground v.1.13,2013-05-09 05:32:00,
2013-05-09 00:35:00,57.4,51.9,29.93,NNE,30,4.0,5.0,82,0.00,,,0.01,Wunderground v.1.13,2013-05-09 05:35:00,
2013-05-09 00:36:00,57.4,51.9,29.93,NNE,32,5.0,5.0,82,0.00,,,0.01,Wunderground v.1.13,2013-05-09 05:36:00,
2013-05-09 00:37:00,57.4,51.9,29.93,NNE,32,5.0,5.0,82,0.00,,,0.01,Wunderground v.1.13,2013-05-09 05:37:00,
2013-05-09 00:39:00,57.3,51.9,29.93,NNE,32,5.0,5.0,82,0.00,,,0.01,Wunderground v.1.13,2013-05-09 05:39:00,
2013-05-09 00:42:00,57.2,51.8,29.93,NNE,31,4.0,5.0,82,0.00,,,0.01,Wunderground v.1.13,2013-05-09 05:42:00,
2013-05-09 00:43:00,57.2,51.8,29.93,NNE,31,4.0,5.0,82,0.00,,,0.01,Wunderground v.1.13,2013-05-09 05:43:00,
2013-05-09 00:45:00,57.2,51.8,29.93,NNE,31,3.0,3.0,82,0.00,,,0.01,Wunderground v.1.13,2013-05-09 05:45:00,
2013-05-09 00:50:00,57.1,51.7,29.93,NNE,31,3.0,3.0,82,0.00,,,0.01,Wunderground v.1.13,2013-05-09 05:50:00,
2013-05-09 00:51:00,57.1,52.0,29.93,NNE,30,3.0,4.0,83,0.00,,,0.01,Wunderground v.1.13,2013-05-09 05:51:00,
2013-05-09 00:52:00,57.1,52.0,29.93,NNE,31,3.0,4.0,83,0.00,,,0.01,Wunderground v.1.13,2013-05-09 05:52:00,
2013-05-09 00:53:00,57.0,51.9,29.93,NNE,31,3.0,4.0,83,0.00,,,0.01,Wunderground v.1.13,2013-05-09 05:53:00,
2013-05-09 00:58:00,56.9,51.8,29.93,NNE,31,3.0,4.0,83,0.00,,,0.01,Wunderground v.1.13,2013-05-09 05:58:00,
2013-05-09 01:00:00,56.9,51.8,29.93,NNE,30,3.0,5.0,83,0.00,,,0.01,Wunderground v.1.13,2013-05-09 06:00:00,
2013-05-09 01:03:00,56.8,51.7,29.93,NNE,30,3.0,5.0,83,0.00,,,0.01,Wunderground v.1.13,2013-05-09 06:03:00,
2013-05-09 01:04:00,56.8,51.7,29.93,NNE,30,3.0,5.0,83,0.00,,,0.01,Wunderground v.1.13,2013-05-09 06:04:00,
2013-05-09 01:06:00,56.8,51.7,29.93,NNE,31,3.0,3.0,83,0.00,,,0.01,Wunderground v.1.13,2013-05-09 06:06:00,
2013-05-09 01:07:00,56.8,51.7,29.93,NNE,30,3.0,3.0,83,0.00,,,0.01,Wunderground v.1.13,2013-05-09 06:07:00,
2013-05-09 01:10:00,56.8,51.7,29.92,NNE,31,2.0,2.0,83,0.00,,,0.01,Wunderground v.1.13,2013-05-09 06:10:00,
2013-05-09 01:11:00,56.8,51.7,29.93,NNE,30,2.0,2.0,83,0.00,,,0.01,Wunderground v.1.13,2013-05-09 06:11:00,
2013-05-09 01:14:00,56.8,51.7,29.93,NNE,31,1.0,2.0,83,0.00,,,0.01,Wunderground v.1.13,2013-05-09 06:14:00,
2013-05-09 01:15:00,56.8,51.7,29.93,NNE,30,1.0,2.0,83,0.00,,,0.01,Wunderground v.1.13,2013-05-09 06:15:00,
2013-05-09 01:17:00,56.8,51.7,29.92,NNE,31,1.0,2.0,83,0.00,,,0.01,Wunderground v.1.13,2013-05-09 06:17:00,
2013-05-09 01:18:00,56.8,51.7,29.92,NNE,31,1.0,2.0,83,0.00,,,0.01,Wunderground v.1.13,2013-05-09 06:18:00,
2013-05-09 01:19:00,56.8,51.7,29.92,NNE,30,1.0,2.0,83,0.00,,,0.01,Wunderground v.1.13,2013-05-09 06:19:00,
2013-05-09 01:20:00,56.8,51.7,29.92,NNE,30,1.0,1.0,83,0.00,,,0.01,Wunderground v.1.13,2013-05-09 06:20:00,
2013-05-09 01:22:00,56.8,51.7,29.92,NNE,31,1.0,4.0,83,0.00,,,0.01,Wunderground v.1.13,2013-05-09 06:22:00,
2013-05-09 01:23:00,56.8,51.7,29.92,NNE,30,2.0,4.0,83,0.00,,,0.01,Wunderground v.1.13,2013-05-09 06:23:00,
2013-05-09 01:26:00,56.8,51.7,29.92,NNE,31,2.0,2.0,83,0.00,,,0.01,Wunderground v.1.13,2013-05-09 06:26:00,
2013-05-09 01:27:00,56.8,51.7,29.92,NNE,30,2.0,2.0,83,0.00,,,0.01,Wunderground v.1.13,2013-05-09 06:27:00,
2013-05-09 01:29:00,56.7,51.6,29.92,NNE,31,2.0,2.0,83,0.00,,,0.01,Wunderground v.1.13,2013-05-09 06:29:00,
2013-05-09 01:31:00,56.8,51.7,29.92,NNE,30,2.0,2.0,83,0.00,,,0.01,Wunderground v.1.13,2013-05-09 06:31:00,
2013-05-09 01:33:00,56.8,51.7,29.92,NNE,31,2.0,2.0,83,0.00,,,0.01,Wunderground v.1.13,2013-05-09 06:33:00,
2013-05-09 01:35:00,56.8,51.7,29.92,NNE,30,1.0,2.0,83,0.00,,,0.01,Wunderground v.1.13,2013-05-09 06:35:00,
2013-05-09 01:36:00,56.8,51.7,29.92,NNE,31,1.0,2.0,83,0.00,,,0.01,Wunderground v.1.13,2013-05-09 06:36:00,
2013-05-09 01:38:00,56.8,51.7,29.92,NNE,31,2.0,4.0,83,0.00,,,0.01,Wunderground v.1.13,2013-05-09 06:38:00,
2013-05-09 01:40:00,56.8,51.4,29.92,NNE,31,2.0,2.0,82,0.00,,,0.01,Wunderground v.1.13,2013-05-09 06:40:00,
2013-05-09 01:43:00,56.9,51.8,29.92,NNE,30,2.0,2.0,83,0.00,,,0.01,Wunderground v.1.13,2013-05-09 06:43:00,
2013-05-09 01:44:00,56.9,51.5,29.92,NNE,30,1.0,2.0,82,0.00,,,0.01,Wunderground v.1.13,2013-05-09 06:44:00,
2013-05-09 01:46:00,56.9,51.5,29.92,NNE,31,1.0,2.0,82,0.00,,,0.01,Wunderground v.1.13,2013-05-09 06:46:00,
2013-05-09 01:47:00,56.9,51.5,29.92,NNE,30,2.0,2.0,82,0.00,,,0.01,Wunderground v.1.13,2013-05-09 06:47:00,
2013-05-09 01:49:00,56.9,51.5,29.92,NNE,31,1.0,2.0,82,0.00,,,0.01,Wunderground v.1.13,2013-05-09 06:49:00,
2013-05-09 01:51:00,56.9,51.8,29.92,NNE,30,1.0,2.0,83,0.00,,,0.01,Wunderground v.1.13,2013-05-09 06:51:00,
2013-05-09 01:53:00,56.8,51.7,29.92,NNE,31,1.0,2.0,83,0.00,,,0.01,Wunderground v.1.13,2013-05-09 06:53:00,
2013-05-09 01:56:00,56.8,51.7,29.92,NNE,30,1.0,1.0,83,0.00,,,0.01,Wunderground v.1.13,2013-05-09 06:56:00,
2013-05-09 01:58:00,56.8,51.7,29.92,NNE,31,1.0,2.0,83,0.00,,,0.01,Wunderground v.1.13,2013-05-09 06:58:00,
2013-05-09 02:00:00,56.7,51.6,29.92,NNE,30,1.0,1.0,83,0.00,,,0.01,Wunderground v.1.13,2013-05-09 07:00:00,
2013-05-09 02:01:00,56.7,51.6,29.92,NNE,30,2.0,2.0,83,0.00,,,0.01,Wunderground v.1.13,2013-05-09 07:01:00,
2013-05-09 02:02:00,56.7,51.6,29.92,NNE,31,2.0,2.0,83,0.00,,,0.01,Wunderground v.1.13,2013-05-09 07:02:00,
2013-05-09 02:03:00,56.7,51.6,29.92,NNE,30,2.0,2.0,83,0.00,,,0.01,Wunderground v.1.13,2013-05-09 07:03:00,
2013-05-09 02:06:00,56.7,51.6,29.92,NNE,31,1.0,1.0,83,0.00,,,0.01,Wunderground v.1.13,2013-05-09 07:06:00,
2013-05-09 02:07:00,56.7,51.6,29.91,NNE,30,1.0,1.0,83,0.00,,,0.01,Wunderground v.1.13,2013-05-09 07:07:00,
2013-05-09 02:11:00,56.7,51.6,29.91,NNE,31,1.0,2.0,83,0.00,,,0.01,Wunderground v.1.13,2013-05-09 07:11:00,
2013-05-09 02:12:00,56.7,51.6,29.91,NNE,30,1.0,4.0,83,0.00,,,0.01,Wunderground v.1.13,2013-05-09 07:12:00,
2013-05-09 02:13:00,56.7,51.6,29.91,NNE,30,1.0,5.0,83,0.00,,,0.01,Wunderground v.1.13,2013-05-09 07:13:00,
2013-05-09 02:17:00,56.7,51.6,29.91,NNE,30,2.0,5.0,83,0.00,,,0.01,Wunderground v.1.13,2013-05-09 07:17:00,
2013-05-09 02:19:00,56.7,51.3,29.91,North,360,2.0,5.0,82,0.00,,,0.01,Wunderground v.1.13,2013-05-09 07:19:00,
2013-05-09 02:22:00,56.8,51.7,29.91,NNW,332,3.0,5.0,83,0.00,,,0.01,Wunderground v.1.13,2013-05-09 07:22:00,
2013-05-09 02:23:00,56.8,51.7,29.91,NNW,338,3.0,5.0,83,0.00,,,0.01,Wunderground v.1.13,2013-05-09 07:23:00,
2013-05-09 02:25:00,56.8,51.4,29.91,NNW,333,3.0,6.0,82,0.00,,,0.01,Wunderground v.1.13,2013-05-09 07:25:00,
2013-05-09 02:26:00,56.8,51.4,29.91,NNW,348,3.0,6.0,82,0.00,,,0.01,Wunderground v.1.13,2013-05-09 07:26:00,
2013-05-09 02:27:00,56.8,51.4,29.91,North,360,3.0,6.0,82,0.00,,,0.01,Wunderground v.1.13,2013-05-09 07:27:00,
2013-05-09 02:28:00,56.8,51.4,29.91,NNE,12,3.0,6.0,82,0.00,,,0.01,Wunderground v.1.13,2013-05-09 07:28:00,
2013-05-09 02:32:00,56.8,51.4,29.91,NNW,344,4.0,5.0,82,0.00,,,0.01,Wunderground v.1.13,2013-05-09 07:32:00,
2013-05-09 02:33:00,56.9,51.5,29.91,North,355,4.0,5.0,82,0.00,,,0.01,Wunderground v.1.13,2013-05-09 07:33:00,
2013-05-09 02:34:00,56.8,51.4,29.91,North,5,4.0,5.0,82,0.00,,,0.01,Wunderground v.1.13,2013-05-09 07:34:00,
2013-05-09 02:38:00,56.9,51.5,29.91,North,11,4.0,6.0,82,0.00,,,0.01,Wunderground v.1.13,2013-05-09 07:38:00,
2013-05-09 02:40:00,56.9,51.5,29.91,North,9,4.0,4.0,82,0.00,,,0.01,Wunderground v.1.13,2013-05-09 07:40:00,
2013-05-09 02:42:00,56.9,51.5,29.91,North,9,4.0,5.0,82,0.00,,,0.01,Wunderground v.1.13,2013-05-09 07:42:00,
2013-05-09 02:44:00,56.9,51.5,29.91,North,360,4.0,5.0,82,0.00,,,0.01,Wunderground v.1.13,2013-05-09 07:44:00,
2013-05-09 02:46:00,56.9,51.5,29.91,North,360,4.0,4.0,82,0.00,,,0.01,Wunderground v.1.13,2013-05-09 07:46:00,
2013-05-09 02:48:00,56.9,51.5,29.91,North,355,3.0,4.0,82,0.00,,,0.01,Wunderground v.1.13,2013-05-09 07:48:00,
2013-05-09 02:51:00,56.9,51.5,29.91,NNW,343,3.0,3.0,82,0.00,,,0.01,Wunderground v.1.13,2013-05-09 07:51:00,
2013-05-09 02:53:00,56.8,51.4,29.91,NNW,346,2.0,3.0,82,0.00,,,0.01,Wunderground v.1.13,2013-05-09 07:53:00,
2013-05-09 02:54:00,56.8,51.4,29.91,NNW,346,2.0,3.0,82,0.00,,,0.01,Wunderground v.1.13,2013-05-09 07:54:00,
2013-05-09 02:57:00,56.8,51.4,29.91,NNW,345,2.0,2.0,82,0.00,,,0.01,Wunderground v.1.13,2013-05-09 07:57:00,
2013-05-09 02:59:00,56.8,51.4,29.91,North,355,1.0,2.0,82,0.00,,,0.01,Wunderground v.1.13,2013-05-09 07:59:00,
2013-05-09 03:00:00,56.8,51.4,29.91,NNW,338,1.0,1.0,82,0.00,,,0.01,Wunderground v.1.13,2013-05-09 08:00:00,
2013-05-09 03:01:00,56.7,51.3,29.91,WNW,294,1.0,1.0,82,0.00,,,0.01,Wunderground v.1.13,2013-05-09 08:01:00,
2013-05-09 03:05:00,56.7,51.3,29.91,NW,307,1.0,2.0,82,0.00,,,0.01,Wunderground v.1.13,2013-05-09 08:05:00,
2013-05-09 03:06:00,56.7,51.3,29.91,NNW,345,1.0,4.0,82,0.00,,,0.01,Wunderground v.1.13,2013-05-09 08:06:00,
2013-05-09 03:09:00,56.6,51.2,29.91,NNW,345,3.0,6.0,82,0.00,,,0.01,Wunderground v.1.13,2013-05-09 08:09:00,
2013-05-09 03:11:00,56.6,51.5,29.91,North,350,3.0,5.0,83,0.00,,,0.01,Wunderground v.1.13,2013-05-09 08:11:00,
2013-05-09 03:12:00,56.6,51.5,29.91,North,350,3.0,5.0,83,0.00,,,0.01,Wunderground v.1.13,2013-05-09 08:12:00,
2013-05-09 03:13:00,56.6,51.5,29.91,North,351,3.0,5.0,83,0.00,,,0.01,Wunderground v.1.13,2013-05-09 08:13:00,
2013-05-09 03:15:00,56.6,51.5,29.91,North,355,3.0,3.0,83,0.00,,,0.01,Wunderground v.1.13,2013-05-09 08:15:00,
2013-05-09 03:17:00,56.5,51.4,29.91,North,11,3.0,5.0,83,0.00,,,0.01,Wunderground v.1.13,2013-05-09 08:17:00,
2013-05-09 03:18:00,56.6,51.5,29.91,North,11,3.0,5.0,83,0.00,,,0.01,Wunderground v.1.13,2013-05-09 08:18:00,
2013-05-09 03:21:00,56.5,51.4,29.91,North,11,3.0,3.0,83,0.00,,,0.01,Wunderground v.1.13,2013-05-09 08:21:00,
2013-05-09 03:22:00,56.6,51.5,29.91,North,11,3.0,3.0,83,0.00,,,0.01,Wunderground v.1.13,2013-05-09 08:22:00,
2013-05-09 03:23:00,56.5,51.4,29.91,North,11,3.0,3.0,83,0.00,,,0.01,Wunderground v.1.13,2013-05-09 08:23:00,
2013-05-09 03:24:00,56.5,51.4,29.91,North,9,3.0,3.0,83,0.00,,,0.01,Wunderground v.1.13,2013-05-09 08:24:00,
2013-05-09 03:28:00,56.5,51.4,29.91,North,9,3.0,3.0,83,0.00,,,0.01,Wunderground v.1.13,2013-05-09 08:28:00,
2013-05-09 03:31:00,56.4,51.3,29.91,North,9,2.0,2.0,83,0.00,,,0.01,Wunderground v.1.13,2013-05-09 08:31:00,
2013-05-09 03:32:00,56.4,51.3,29.91,North,9,2.0,2.0,83,0.00,,,0.01,Wunderground v.1.13,2013-05-09 08:32:00,
2013-05-09 03:35:00,56.4,51.3,29.91,North,9,2.0,3.0,83,0.00,,,0.01,Wunderground v.1.13,2013-05-09 08:35:00,
2013-05-09 03:38:00,56.4,51.3,29.91,North,9,2.0,5.0,83,0.00,,,0.01,Wunderground v.1.13,2013-05-09 08:38:00,
2013-05-09 03:39:00,56.4,51.3,29.91,North,9,3.0,5.0,83,0.00,,,0.01,Wunderground v.1.13,2013-05-09 08:39:00,
2013-05-09 03:41:00,56.4,51.3,29.91,North,9,3.0,4.0,83,0.00,,,0.01,Wunderground v.1.13,2013-05-09 08:41:00,
2013-05-09 03:43:00,56.4,51.3,29.91,North,11,3.0,4.0,83,0.00,,,0.01,Wunderground v.1.13,2013-05-09 08:43:00,
2013-05-09 03:44:00,56.4,51.3,29.91,North,11,3.0,4.0,83,0.00,,,0.01,Wunderground v.1.13,2013-05-09 08:44:00,
2013-05-09 03:47:00,56.4,51.3,29.91,North,9,3.0,5.0,83,0.00,,,0.01,Wunderground v.1.13,2013-05-09 08:47:00,
2013-05-09 03:49:00,56.4,51.3,29.91,North,5,3.0,5.0,83,0.00,,,0.01,Wunderground v.1.13,2013-05-09 08:49:00,
2013-05-09 03:51:00,56.4,51.3,29.91,North,5,3.0,6.0,83,0.00,,,0.01,Wunderground v.1.13,2013-05-09 08:51:00,
2013-05-09 03:53:00,56.4,51.3,29.91,NNW,344,3.0,6.0,83,0.00,,,0.01,Wunderground v.1.13,2013-05-09 08:53:00,
2013-05-09 03:55:00,56.4,51.3,29.91,NNW,328,3.0,4.0,83,0.00,,,0.01,Wunderground v.1.13,2013-05-09 08:55:00,
2013-05-09 03:56:00,56.4,51.3,29.91,NNW,328,3.0,4.0,83,0.00,,,0.01,Wunderground v.1.13,2013-05-09 08:56:00,
2013-05-09 03:58:00,56.4,51.3,29.91,NNW,330,3.0,5.0,83,0.00,,,0.01,Wunderground v.1.13,2013-05-09 08:58:00,
2013-05-09 04:00:00,56.4,51.3,29.91,NNW,341,3.0,3.0,83,0.00,,,0.01,Wunderground v.1.13,2013-05-09 09:00:00,
2013-05-09 04:02:00,56.4,51.3,29.91,NNW,345,3.0,3.0,83,0.00,,,0.01,Wunderground v.1.13,2013-05-09 09:02:00,
2013-05-09 04:04:00,56.4,51.3,29.91,NNW,348,3.0,4.0,83,0.00,,,0.01,Wunderground v.1.13,2013-05-09 09:04:00,
2013-05-09 04:06:00,56.4,51.3,29.91,NNW,338,3.0,3.0,83,0.00,,,0.01,Wunderground v.1.13,2013-05-09 09:06:00,
2013-05-09 04:07:00,56.4,51.3,29.91,NNW,339,3.0,3.0,83,0.00,,,0.01,Wunderground v.1.13,2013-05-09 09:07:00,
2013-05-09 04:12:00,56.4,51.3,29.91,NNW,342,2.0,6.0,83,0.00,,,0.01,Wunderground v.1.13,2013-05-09 09:12:00,
2013-05-09 04:13:00,56.4,51.3,29.91,NNW,342,2.0,6.0,83,0.00,,,0.01,Wunderground v.1.13,2013-05-09 09:13:00,
2013-05-09 04:15:00,56.4,51.6,29.92,NW,321,3.0,3.0,84,0.00,,,0.01,Wunderground v.1.13,2013-05-09 09:15:00,
2013-05-09 04:16:00,56.4,51.6,29.91,NW,321,3.0,3.0,84,0.00,,,0.01,Wunderground v.1.13,2013-05-09 09:16:00,
2013-05-09 04:17:00,56.3,51.5,29.91,NW,322,3.0,4.0,84,0.00,,,0.01,Wunderground v.1.13,2013-05-09 09:17:00,
2013-05-09 04:19:00,56.3,51.5,29.92,North,355,3.0,5.0,84,0.00,,,0.01,Wunderground v.1.13,2013-05-09 09:19:00,
2013-05-09 04:24:00,56.3,51.5,29.92,NNW,338,2.0,5.0,84,0.00,,,0.01,Wunderground v.1.13,2013-05-09 09:24:00,
2013-05-09 04:25:00,56.3,51.5,29.92,North,5,3.0,6.0,84,0.00,,,0.01,Wunderground v.1.13,2013-05-09 09:25:00,
2013-05-09 04:26:00,56.3,51.5,29.91,North,5,3.0,6.0,84,0.00,,,0.01,Wunderground v.1.13,2013-05-09 09:26:00,
2013-05-09 04:29:00,56.2,51.4,29.92,North,5,3.0,6.0,84,0.00,,,0.01,Wunderground v.1.13,2013-05-09 09:29:00,
2013-05-09 04:30:00,56.2,51.4,29.91,NNE,17,3.0,5.0,84,0.00,,,0.01,Wunderground v.1.13,2013-05-09 09:30:00,
2013-05-09 04:32:00,56.2,51.4,29.91,NNE,17,3.0,6.0,84,0.00,,,0.01,Wunderground v.1.13,2013-05-09 09:32:00,
2013-05-09 04:33:00,56.2,51.4,29.91,NNE,15,4.0,6.0,84,0.00,,,0.01,Wunderground v.1.13,2013-05-09 09:33:00,
2013-05-09 04:35:00,56.1,51.3,29.91,NNE,15,4.0,4.0,84,0.00,,,0.01,Wunderground v.1.13,2013-05-09 09:35:00,
2013-05-09 04:36:00,56.1,51.7,29.91,NNE,18,4.0,4.0,85,0.00,,,0.01,Wunderground v.1.13,2013-05-09 09:36:00,
2013-05-09 04:40:00,56.1,51.7,29.91,NNE,25,5.0,7.0,85,0.00,,,0.01,Wunderground v.1.13,2013-05-09 09:40:00,
2013-05-09 04:41:00,56.1,51.7,29.91,North,360,5.0,7.0,85,0.00,,,0.01,Wunderground v.1.13,2013-05-09 09:41:00,
2013-05-09 04:45:00,56.0,51.6,29.91,NNE,15,6.0,6.0,85,0.00,,,0.01,Wunderground v.1.13,2013-05-09 09:45:00,
2013-05-09 04:46:00,56.0,51.6,29.91,NNW,327,6.0,6.0,85,0.00,,,0.01,Wunderground v.1.13,2013-05-09 09:46:00,
2013-05-09 04:48:00,55.9,51.5,29.91,NNE,14,5.0,6.0,85,0.00,,,0.01,Wunderground v.1.13,2013-05-09 09:48:00,
2013-05-09 04:51:00,55.9,51.5,29.91,North,360,5.0,5.0,85,0.00,,,0.01,Wunderground v.1.13,2013-05-09 09:51:00,
2013-05-09 04:53:00,55.9,51.5,29.91,North,355,4.0,5.0,85,0.00,,,0.01,Wunderground v.1.13,2013-05-09 09:53:00,
2013-05-09 04:56:00,55.9,51.5,29.91,NNE,19,4.0,5.0,85,0.00,,,0.01,Wunderground v.1.13,2013-05-09 09:56:00,
2013-05-09 04:57:00,55.9,51.5,29.91,NNE,19,4.0,5.0,85,0.00,,,0.01,Wunderground v.1.13,2013-05-09 09:57:00,
2013-05-09 04:58:00,55.9,51.8,29.91,NNE,22,4.0,5.0,86,0.00,,,0.01,Wunderground v.1.13,2013-05-09 09:58:00,
2013-05-09 04:59:00,55.9,51.8,29.91,NNE,22,4.0,5.0,86,0.00,,,0.01,Wunderground v.1.13,2013-05-09 09:59:00,
2013-05-09 05:02:00,55.9,51.8,29.92,NNE,22,4.0,5.0,86,0.00,,,0.01,Wunderground v.1.13,2013-05-09 10:02:00,
2013-05-09 05:03:00,55.9,51.8,29.92,NNE,21,4.0,6.0,86,0.00,,,0.01,Wunderground v.1.13,2013-05-09 10:03:00,
2013-05-09 05:04:00,55.9,51.8,29.92,North,9,4.0,6.0,86,0.00,,,0.01,Wunderground v.1.13,2013-05-09 10:04:00,
2013-05-09 05:07:00,55.9,51.8,29.92,NNE,24,5.0,5.0,86,0.00,,,0.01,Wunderground v.1.13,2013-05-09 10:07:00,
2013-05-09 05:08:00,55.9,51.8,29.92,NNE,22,5.0,5.0,86,0.00,,,0.01,Wunderground v.1.13,2013-05-09 10:08:00,
2013-05-09 05:10:00,55.9,51.8,29.92,NNE,30,5.0,7.0,86,0.00,,,0.01,Wunderground v.1.13,2013-05-09 10:10:00,
2013-05-09 05:11:00,55.9,51.8,29.92,NNE,22,6.0,7.0,86,0.00,,,0.01,Wunderground v.1.13,2013-05-09 10:11:00,
2013-05-09 05:16:00,55.9,51.8,29.91,NNE,15,6.0,7.0,86,0.00,,,0.01,Wunderground v.1.13,2013-05-09 10:16:00,
2013-05-09 05:18:00,55.9,51.8,29.91,North,5,6.0,7.0,86,0.00,,,0.01,Wunderground v.1.13,2013-05-09 10:18:00,
2013-05-09 05:19:00,55.9,51.8,29.91,North,360,6.0,7.0,86,0.00,,,0.01,Wunderground v.1.13,2013-05-09 10:19:00,
2013-05-09 05:23:00,55.9,51.8,29.91,North,355,5.0,6.0,86,0.00,,,0.01,Wunderground v.1.13,2013-05-09 10:23:00,
2013-05-09 05:24:00,55.9,51.8,29.91,North,355,5.0,6.0,86,0.00,,,0.01,Wunderground v.1.13,2013-05-09 10:24:00,
2013-05-09 05:25:00,55.9,51.8,29.91,North,355,5.0,5.0,86,0.00,,,0.01,Wunderground v.1.13,2013-05-09 10:25:00,
2013-05-09 05:27:00,55.9,51.8,29.91,North,355,5.0,7.0,86,0.00,,,0.01,Wunderground v.1.13,2013-05-09 10:27:00,
2013-05-09 05:30:00,55.9,51.8,29.91,North,360,5.0,5.0,86,0.00,,,0.01,Wunderground v.1.13,2013-05-09 10:30:00,
2013-05-09 05:31:00,55.9,51.8,29.91,North,360,5.0,5.0,86,0.00,,,0.01,Wunderground v.1.13,2013-05-09 10:31:00,
2013-05-09 05:32:00,55.9,51.8,29.91,NNE,15,5.0,6.0,86,0.00,,,0.01,Wunderground v.1.13,2013-05-09 10:32:00,
2013-05-09 05:33:00,55.8,51.7,29.91,NNE,20,6.0,6.0,86,0.00,,,0.01,Wunderground v.1.13,2013-05-09 10:33:00,
2013-05-09 05:37:00,55.8,51.7,29.91,North,355,6.0,6.0,86,0.00,,,0.01,Wunderground v.1.13,2013-05-09 10:37:00,
2013-05-09 05:39:00,55.8,51.7,29.91,NNE,13,5.0,6.0,86,0.00,,,0.01,Wunderground v.1.13,2013-05-09 10:39:00,
2013-05-09 05:40:00,55.8,51.7,29.91,North,360,5.0,5.0,86,0.00,,,0.01,Wunderground v.1.13,2013-05-09 10:40:00,
2013-05-09 05:41:00,55.8,51.7,29.91,North,9,5.0,5.0,86,0.00,,,0.01,Wunderground v.1.13,2013-05-09 10:41:00,
2013-05-09 05:45:00,55.7,51.6,29.91,North,9,5.0,5.0,86,0.00,,,0.01,Wunderground v.1.13,2013-05-09 10:45:00,
2013-05-09 05:49:00,55.7,51.9,29.91,North,11,5.0,8.0,87,0.00,,,0.01,Wunderground v.1.13,2013-05-09 10:49:00,
2013-05-09 05:50:00,55.7,51.9,29.91,North,9,5.0,7.0,87,0.00,,,0.01,Wunderground v.1.13,2013-05-09 10:50:00,
2013-05-09 05:51:00,55.7,51.9,29.91,North,355,5.0,7.0,87,0.00,,,0.01,Wunderground v.1.13,2013-05-09 10:51:00,
2013-05-09 05:52:00,55.7,51.9,29.91,NNE,32,5.0,7.0,87,0.00,,,0.01,Wunderground v.1.13,2013-05-09 10:52:00,
2013-05-09 05:57:00,55.7,51.9,29.92,NNE,24,6.0,6.0,87,0.00,,,0.01,Wunderground v.1.13,2013-05-09 10:57:00,
2013-05-09 05:58:00,55.7,51.9,29.92,North,360,6.0,6.0,87,0.00,,,0.01,Wunderground v.1.13,2013-05-09 10:58:00,
2013-05-09 05:59:00,55.7,51.9,29.92,NNE,13,6.0,6.0,87,0.00,,,0.01,Wunderground v.1.13,2013-05-09 10:59:00,
2013-05-09 06:02:00,55.7,51.9,29.92,NNE,19,5.0,6.0,87,0.00,,,0.01,Wunderground v.1.13,2013-05-09 11:02:00,
2013-05-09 06:03:00,55.7,51.9,29.92,North,11,5.0,6.0,87,0.00,,,0.01,Wunderground v.1.13,2013-05-09 11:03:00,
2013-05-09 06:05:00,55.7,51.9,29.92,NNE,26,5.0,5.0,87,0.00,,,0.01,Wunderground v.1.13,2013-05-09 11:05:00,
2013-05-09 06:07:00,55.7,51.9,29.92,North,360,5.0,7.0,87,0.00,,,0.01,Wunderground v.1.13,2013-05-09 11:07:00,
2013-05-09 06:11:00,55.7,51.9,29.92,NNE,14,6.0,6.0,87,0.00,,,0.01,Wunderground v.1.13,2013-05-09 11:11:00,
2013-05-09 06:14:00,55.7,51.9,29.93,NNE,22,6.0,8.0,87,0.00,,,0.01,Wunderground v.1.13,2013-05-09 11:14:00,
2013-05-09 06:15:00,55.7,51.9,29.93,NE,51,6.0,6.0,87,0.00,,,0.01,Wunderground v.1.13,2013-05-09 11:15:00,
2013-05-09 06:17:00,55.7,51.9,29.93,NNW,329,6.0,6.0,87,0.00,,,0.01,Wunderground v.1.13,2013-05-09 11:17:00,
2013-05-09 06:18:00,55.7,51.9,29.93,North,10,6.0,6.0,87,0.00,,,0.01,Wunderground v.1.13,2013-05-09 11:18:00,
2013-05-09 06:21:00,55.7,51.9,29.93,NNE,18,6.0,7.0,87,0.00,,,0.01,Wunderground v.1.13,2013-05-09 11:21:00,
2013-05-09 06:22:00,55.7,51.9,29.93,NE,36,6.0,7.0,87,0.00,,,0.01,Wunderground v.1.13,2013-05-09 11:22:00,
2013-05-09 06:26:00,55.7,51.9,29.93,North,9,6.0,6.0,87,0.00,,,0.01,Wunderground v.1.13,2013-05-09 11:26:00,
2013-05-09 06:27:00,55.7,51.9,29.93,North,360,6.0,6.0,87,0.00,,,0.01,Wunderground v.1.13,2013-05-09 11:27:00,
2013-05-09 06:28:00,55.7,51.9,29.93,North,360,6.0,6.0,87,0.00,,,0.01,Wunderground v.1.13,2013-05-09 11:28:00,
2013-05-09 06:30:00,55.6,51.8,29.93,NNE,19,5.0,5.0,87,0.00,,,0.01,Wunderground v.1.13,2013-05-09 11:30:00,
2013-05-09 06:35:00,55.6,51.8,29.93,NNE,18,5.0,5.0,87,0.00,,,0.01,Wunderground v.1.13,2013-05-09 11:35:00,
2013-05-09 06:36:00,55.6,51.8,29.93,NNE,17,5.0,5.0,87,0.00,,,0.01,Wunderground v.1.13,2013-05-09 11:36:00,
2013-05-09 06:37:00,55.5,51.7,29.93,NNE,22,4.0,6.0,87,0.00,,,0.01,Wunderground v.1.13,2013-05-09 11:37:00,
2013-05-09 06:40:00,55.5,51.7,29.93,NNE,15,5.0,7.0,87,0.00,,,0.01,Wunderground v.1.13,2013-05-09 11:40:00,
2013-05-09 06:43:00,55.5,51.7,29.93,NNE,13,6.0,7.0,87,0.00,,,0.01,Wunderground v.1.13,2013-05-09 11:43:00,
2013-05-09 06:44:00,55.5,51.7,29.93,North,351,6.0,7.0,87,0.00,,,0.01,Wunderground v.1.13,2013-05-09 11:44:00,
2013-05-09 06:45:00,55.5,51.7,29.93,North,5,6.0,6.0,87,0.00,,,0.01,Wunderground v.1.13,2013-05-09 11:45:00,
2013-05-09 06:47:00,55.5,52.0,29.93,North,11,6.0,8.0,88,0.00,,,0.01,Wunderground v.1.13,2013-05-09 11:47:00,
2013-05-09 06:50:00,55.5,52.0,29.93,NNE,30,6.0,6.0,88,0.00,,,0.01,Wunderground v.1.13,2013-05-09 11:50:00,
2013-05-09 06:51:00,55.5,52.0,29.93,NNE,29,6.0,6.0,88,0.00,,,0.01,Wunderground v.1.13,2013-05-09 11:51:00,
2013-05-09 06:53:00,55.5,52.0,29.93,NNE,17,6.0,6.0,88,0.00,,,0.01,Wunderground v.1.13,2013-05-09 11:53:00,
2013-05-09 06:56:00,55.4,51.9,29.94,NNE,15,6.0,6.0,88,0.00,,,0.01,Wunderground v.1.13,2013-05-09 11:56:00,
2013-05-09 06:57:00,55.4,51.9,29.94,NNE,16,6.0,6.0,88,0.00,,,0.01,Wunderground v.1.13,2013-05-09 11:57:00,
2013-05-09 06:59:00,55.4,51.9,29.94,NNE,19,5.0,7.0,88,0.00,,,0.01,Wunderground v.1.13,2013-05-09 11:59:00,
2013-05-09 07:00:00,55.4,51.9,29.94,NNE,17,5.0,9.0,88,0.00,,,0.01,Wunderground v.1.13,2013-05-09 12:00:00,
2013-05-09 07:02:00,55.4,51.9,29.94,NNE,28,6.0,9.0,88,0.00,,,0.01,Wunderground v.1.13,2013-05-09 12:02:00,
2013-05-09 07:05:00,55.4,51.9,29.94,NNW,348,6.0,6.0,88,0.00,,,0.01,Wunderground v.1.13,2013-05-09 12:05:00,
2013-05-09 07:06:00,55.4,51.9,29.94,NNE,15,6.0,6.0,88,0.00,,,0.01,Wunderground v.1.13,2013-05-09 12:06:00,
2013-05-09 07:07:00,55.4,51.9,29.94,NNE,19,6.0,6.0,88,0.00,,,0.01,Wunderground v.1.13,2013-05-09 12:07:00,
2013-05-09 07:11:00,55.4,51.9,29.94,NNE,19,6.0,7.0,88,0.00,,,0.01,Wunderground v.1.13,2013-05-09 12:11:00,
2013-05-09 07:12:00,55.4,51.9,29.94,NNE,25,6.0,7.0,88,0.00,,,0.01,Wunderground v.1.13,2013-05-09 12:12:00,
2013-05-09 07:17:00,55.5,52.0,29.93,NNE,22,7.0,8.0,88,0.00,,,0.01,Wunderground v.1.13,2013-05-09 12:17:00,
2013-05-09 07:18:00,55.5,52.0,29.94,North,360,7.0,8.0,88,0.00,,,0.01,Wunderground v.1.13,2013-05-09 12:18:00,
2013-05-09 07:19:00,55.5,52.0,29.94,NNE,20,7.0,8.0,88,0.00,,,0.01,Wunderground v.1.13,2013-05-09 12:19:00,
2013-05-09 07:21:00,55.5,52.0,29.94,North,5,7.0,7.0,88,0.00,,,0.01,Wunderground v.1.13,2013-05-09 12:21:00,
2013-05-09 07:22:00,55.5,52.0,29.94,NNE,18,7.0,7.0,88,0.00,,,0.01,Wunderground v.1.13,2013-05-09 12:22:00,
2013-05-09 07:24:00,55.5,52.0,29.94,NE,36,7.0,7.0,88,0.00,,,0.01,Wunderground v.1.13,2013-05-09 12:24:00,
2013-05-09 07:26:00,55.5,52.0,29.94,North,360,7.0,10.0,88,0.00,,,0.01,Wunderground v.1.13,2013-05-09 12:26:00,
2013-05-09 07:29:00,55.5,52.0,29.94,North,11,6.0,10.0,88,0.00,,,0.01,Wunderground v.1.13,2013-05-09 12:29:00,
2013-05-09 07:31:00,55.5,52.0,29.94,NNE,29,6.0,8.0,88,0.00,,,0.01,Wunderground v.1.13,2013-05-09 12:31:00,
2013-05-09 07:32:00,55.5,52.0,29.94,NW,325,6.0,8.0,88,0.00,,,0.01,Wunderground v.1.13,2013-05-09 12:32:00,
2013-05-09 07:33:00,55.5,52.0,29.94,NE,48,6.0,9.0,88,0.00,,,0.01,Wunderground v.1.13,2013-05-09 12:33:00,
2013-05-09 07:36:00,55.4,51.9,29.94,NNE,16,7.0,10.0,88,0.00,,,0.01,Wunderground v.1.13,2013-05-09 12:36:00,
2013-05-09 07:37:00,55.4,52.2,29.94,NNE,14,7.0,10.0,89,0.00,,,0.01,Wunderground v.1.13,2013-05-09 12:37:00,
2013-05-09 07:38:00,55.4,52.2,29.94,NNW,327,7.0,10.0,89,0.00,,,0.01,Wunderground v.1.13,2013-05-09 12:38:00,
2013-05-09 07:40:00,55.3,52.1,29.94,NNE,29,7.0,8.0,89,0.00,,,0.01,Wunderground v.1.13,2013-05-09 12:40:00,
2013-05-09 07:42:00,55.3,52.1,29.94,NNE,20,8.0,11.0,89,0.00,,,0.01,Wunderground v.1.13,2013-05-09 12:42:00,
2013-05-09 07:48:00,55.2,52.0,29.94,NNE,15,8.0,8.0,89,0.00,,,0.01,Wunderground v.1.13,2013-05-09 12:48:00,
2013-05-09 07:50:00,55.1,52.2,29.94,NNE,12,8.0,8.0,90,0.00,,,0.01,Wunderground v.1.13,2013-05-09 12:50:00,
2013-05-09 07:52:00,55.0,52.1,29.94,North,5,8.0,9.0,90,0.00,,,0.01,Wunderground v.1.13,2013-05-09 12:52:00,
2013-05-09 07:53:00,55.0,52.1,29.94,NNE,14,8.0,9.0,90,0.00,,,0.01,Wunderground v.1.13,2013-05-09 12:53:00,
2013-05-09 07:55:00,55.0,52.1,29.94,NE,43,8.0,9.0,90,0.00,,,0.01,Wunderground v.1.13,2013-05-09 12:55:00,
2013-05-09 07:58:00,54.9,52.0,29.94,NE,36,8.0,9.0,90,0.00,,,0.01,Wunderground v.1.13,2013-05-09 12:58:00,
2013-05-09 07:59:00,54.9,52.0,29.94,NNE,16,8.0,9.0,90,0.00,,,0.01,Wunderground v.1.13,2013-05-09 12:59:00,
2013-05-09 08:00:00,54.9,52.0,29.94,North,5,8.0,9.0,90,0.00,,,0.01,Wunderground v.1.13,2013-05-09 13:00:00,
2013-05-09 08:01:00,54.9,52.0,29.95,North,5,8.0,9.0,90,0.00,,,0.01,Wunderground v.1.13,2013-05-09 13:01:00,
2013-05-09 08:03:00,54.8,51.9,29.95,North,9,9.0,10.0,90,0.00,,,0.01,Wunderground v.1.13,2013-05-09 13:03:00,
2013-05-09 08:06:00,54.6,51.7,29.95,NE,48,9.0,11.0,90,0.00,,,0.01,Wunderground v.1.13,2013-05-09 13:06:00,
2013-05-09 08:07:00,54.5,51.6,29.95,NNE,29,9.0,11.0,90,0.00,,,0.01,Wunderground v.1.13,2013-05-09 13:07:00,
2013-05-09 08:10:00,54.4,51.5,29.95,North,360,10.0,12.0,90,0.00,,,0.01,Wunderground v.1.13,2013-05-09 13:10:00,
2013-05-09 08:11:00,54.3,51.4,29.95,NE,40,10.0,12.0,90,0.00,,,0.01,Wunderground v.1.13,2013-05-09 13:11:00,
2013-05-09 08:14:00,54.2,51.3,29.95,NNE,17,10.0,12.0,90,0.00,,,0.01,Wunderground v.1.13,2013-05-09 13:14:00,
2013-05-09 08:16:00,54.1,50.9,29.95,NE,34,10.0,11.0,89,0.00,,,0.01,Wunderground v.1.13,2013-05-09 13:16:00,
2013-05-09 08:17:00,54.1,51.2,29.95,NNE,13,10.0,11.0,90,0.00,,,0.01,Wunderground v.1.13,2013-05-09 13:17:00,
2013-05-09 08:18:00,54.0,51.1,29.95,NE,34,10.0,11.0,90,0.00,,,0.01,Wunderground v.1.13,2013-05-09 13:18:00,
2013-05-09 08:21:00,53.9,51.0,29.95,NNE,17,9.0,9.0,90,0.00,,,0.01,Wunderground v.1.13,2013-05-09 13:21:00,
2013-05-09 08:22:00,53.9,51.0,29.95,NNE,30,9.0,11.0,90,0.00,,,0.01,Wunderground v.1.13,2013-05-09 13:22:00,
2013-05-09 08:23:00,53.9,51.0,29.95,NNE,31,9.0,11.0,90,0.00,,,0.01,Wunderground v.1.13,2013-05-09 13:23:00,
2013-05-09 08:25:00,53.7,50.5,29.95,NNE,19,9.0,9.0,89,0.00,,,0.01,Wunderground v.1.13,2013-05-09 13:25:00,
2013-05-09 08:27:00,53.6,50.4,29.95,NNE,21,9.0,10.0,89,0.00,,,0.01,Wunderground v.1.13,2013-05-09 13:27:00,
2013-05-09 08:29:00,53.5,50.3,29.95,NNE,14,9.0,10.0,89,0.00,,,0.01,Wunderground v.1.13,2013-05-09 13:29:00,
2013-05-09 08:34:00,53.3,50.1,29.95,NNE,21,8.0,9.0,89,0.00,,,0.01,Wunderground v.1.13,2013-05-09 13:34:00,
2013-05-09 08:35:00,53.3,50.1,29.96,NE,45,8.0,8.0,89,0.00,,,0.01,Wunderground v.1.13,2013-05-09 13:35:00,
2013-05-09 08:36:00,53.2,50.0,29.96,NNE,16,8.0,10.0,89,0.00,,,0.01,Wunderground v.1.13,2013-05-09 13:36:00,
2013-05-09 08:39:00,52.9,49.7,29.96,NNE,22,8.0,15.0,89,0.00,,,0.01,Wunderground v.1.13,2013-05-09 13:39:00,
2013-05-09 08:40:00,52.7,49.5,29.96,NE,51,8.0,8.0,89,0.00,,,0.01,Wunderground v.1.13,2013-05-09 13:40:00,
2013-05-09 08:41:00,52.6,49.4,29.96,NNE,25,8.0,8.0,89,0.00,,,0.01,Wunderground v.1.13,2013-05-09 13:41:00,
2013-05-09 08:42:00,52.5,49.4,29.96,NNE,19,8.0,10.0,89,0.00,,,0.01,Wunderground v.1.13,2013-05-09 13:42:00,
2013-05-09 08:44:00,52.2,49.1,29.96,NE,37,8.0,14.0,89,0.00,,,0.01,Wunderground v.1.13,2013-05-09 13:44:00,
2013-05-09 08:46:00,51.9,48.5,29.96,NNE,21,9.0,12.0,88,0.00,,,0.01,Wunderground v.1.13,2013-05-09 13:46:00,
2013-05-09 08:48:00,51.7,48.3,29.97,NNE,12,9.0,12.0,88,0.00,,,0.01,Wunderground v.1.13,2013-05-09 13:48:00,
2013-05-09 08:49:00,51.6,48.5,29.97,NNE,18,9.0,12.0,89,0.00,,,0.01,Wunderground v.1.13,2013-05-09 13:49:00,
2013-05-09 08:50:00,51.5,48.4,29.97,NE,41,9.0,10.0,89,0.00,,,0.01,Wunderground v.1.13,2013-05-09 13:50:00,
2013-05-09 08:52:00,51.4,48.3,29.97,NE,41,10.0,11.0,89,0.00,,,0.01,Wunderground v.1.13,2013-05-09 13:52:00,
2013-05-09 08:53:00,51.3,48.2,29.97,NE,53,10.0,11.0,89,0.00,,,0.01,Wunderground v.1.13,2013-05-09 13:53:00,
2013-05-09 08:57:00,51.0,47.9,29.97,NE,51,10.0,13.0,89,0.00,,,0.01,Wunderground v.1.13,2013-05-09 13:57:00,
2013-05-09 08:58:00,51.0,47.9,29.97,NNE,26,10.0,13.0,89,0.00,,,0.01,Wunderground v.1.13,2013-05-09 13:58:00,
2013-05-09 08:59:00,50.9,47.8,29.97,NNE,32,11.0,13.0,89,0.00,,,0.01,Wunderground v.1.13,2013-05-09 13:59:00,
2013-05-09 09:00:00,50.9,47.8,29.97,NE,36,10.0,11.0,89,0.00,,,0.01,Wunderground v.1.13,2013-05-09 14:00:00,
2013-05-09 09:04:00,50.7,47.6,29.97,NE,40,10.0,12.0,89,0.00,,,0.01,Wunderground v.1.13,2013-05-09 14:04:00,
2013-05-09 09:05:00,50.6,47.5,29.97,NE,38,10.0,10.0,89,0.00,,,0.01,Wunderground v.1.13,2013-05-09 14:05:00,
2013-05-09 09:06:00,50.6,47.5,29.97,NE,45,10.0,10.0,89,0.00,,,0.01,Wunderground v.1.13,2013-05-09 14:06:00,
2013-05-09 09:08:00,50.5,47.4,29.97,NNE,19,10.0,10.0,89,0.00,,,0.01,Wunderground v.1.13,2013-05-09 14:08:00,
2013-05-09 09:11:00,50.5,47.4,29.97,NW,304,10.0,10.0,89,0.00,,,0.01,Wunderground v.1.13,2013-05-09 14:11:00,
2013-05-09 09:13:00,50.4,47.3,29.97,NNW,348,10.0,11.0,89,0.00,,,0.01,Wunderground v.1.13,2013-05-09 14:13:00,
2013-05-09 09:16:00,50.2,47.1,29.97,NE,36,10.0,12.0,89,0.00,,,0.01,Wunderground v.1.13,2013-05-09 14:16:00,
2013-05-09 09:19:00,50.0,46.9,29.97,NNE,30,9.0,13.0,89,0.00,,,0.01,Wunderground v.1.13,2013-05-09 14:19:00,
2013-05-09 09:20:00,50.0,46.9,29.97,North,9,9.0,10.0,89,0.00,,,0.01,Wunderground v.1.13,2013-05-09 14:20:00,
2013-05-09 09:22:00,49.9,46.8,29.97,NE,36,9.0,12.0,89,0.00,,,0.01,Wunderground v.1.13,2013-05-09 14:22:00,
2013-05-09 09:23:00,49.8,46.7,29.97,NNE,32,10.0,12.0,89,0.00,,,0.01,Wunderground v.1.13,2013-05-09 14:23:00,
2013-05-09 09:24:00,49.7,46.6,29.97,NE,34,9.0,13.0,89,0.00,,,0.01,Wunderground v.1.13,2013-05-09 14:24:00,
2013-05-09 09:27:00,49.7,46.6,29.97,NE,40,10.0,10.0,89,0.00,,,0.01,Wunderground v.1.13,2013-05-09 14:27:00,
2013-05-09 09:29:00,49.7,46.6,29.97,North,10,10.0,10.0,89,0.00,,,0.01,Wunderground v.1.13,2013-05-09 14:29:00,
2013-05-09 09:30:00,49.7,46.6,29.98,North,5,9.0,9.0,89,0.00,,,0.01,Wunderground v.1.13,2013-05-09 14:30:00,
2013-05-09 09:31:00,49.7,46.6,29.98,North,360,9.0,9.0,89,0.00,,,0.01,Wunderground v.1.13,2013-05-09 14:31:00,
2013-05-09 09:32:00,49.7,46.6,29.98,NE,37,8.0,9.0,89,0.00,,,0.01,Wunderground v.1.13,2013-05-09 14:32:00,
2013-05-09 09:33:00,49.7,46.6,29.98,NNE,25,8.0,9.0,89,0.00,,,0.01,Wunderground v.1.13,2013-05-09 14:33:00,
2013-05-09 09:35:00,49.7,46.6,29.98,NNE,21,8.0,8.0,89,0.00,,,0.01,Wunderground v.1.13,2013-05-09 14:35:00,
2013-05-09 09:38:00,49.7,46.6,29.98,NNE,19,7.0,8.0,89,0.00,,,0.01,Wunderground v.1.13,2013-05-09 14:38:00,
2013-05-09 09:40:00,49.7,46.6,29.98,NNE,17,7.0,7.0,89,0.00,,,0.01,Wunderground v.1.13,2013-05-09 14:40:00,
2013-05-09 09:41:00,49.7,46.6,29.98,NNE,26,7.0,8.0,89,0.00,,,0.01,Wunderground v.1.13,2013-05-09 14:41:00,
2013-05-09 09:44:00,49.7,46.6,29.98,North,355,7.0,8.0,89,0.00,,,0.01,Wunderground v.1.13,2013-05-09 14:44:00,
2013-05-09 09:46:00,49.6,46.5,29.98,NNE,31,6.0,7.0,89,0.00,,,0.01,Wunderground v.1.13,2013-05-09 14:46:00,
2013-05-09 09:47:00,49.6,46.5,29.98,NNE,29,6.0,8.0,89,0.00,,,0.01,Wunderground v.1.13,2013-05-09 14:47:00,
2013-05-09 09:50:00,49.6,46.5,29.98,NNW,330,6.0,6.0,89,0.00,,,0.01,Wunderground v.1.13,2013-05-09 14:50:00,
2013-05-09 09:51:00,49.5,46.4,29.98,North,360,6.0,6.0,89,0.00,,,0.01,Wunderground v.1.13,2013-05-09 14:51:00,
2013-05-09 09:54:00,49.4,46.3,29.98,NNW,348,6.0,7.0,89,0.00,,,0.01,Wunderground v.1.13,2013-05-09 14:54:00,
2013-05-09 09:56:00,49.2,46.1,29.98,North,9,6.0,7.0,89,0.00,,,0.01,Wunderground v.1.13,2013-05-09 14:56:00,
2013-05-09 09:57:00,49.2,46.1,29.98,NNW,344,6.0,7.0,89,0.00,,,0.01,Wunderground v.1.13,2013-05-09 14:57:00,
2013-05-09 10:02:00,49.0,45.9,29.99,North,9,7.0,7.0,89,0.00,,,0.01,Wunderground v.1.13,2013-05-09 15:02:00,
2013-05-09 10:03:00,48.9,45.8,29.99,NE,34,7.0,7.0,89,0.00,,,0.01,Wunderground v.1.13,2013-05-09 15:03:00,
2013-05-09 10:06:00,48.9,45.8,29.98,NNE,26,7.0,7.0,89,0.00,,,0.01,Wunderground v.1.13,2013-05-09 15:06:00,
2013-05-09 10:07:00,48.9,45.8,29.99,NW,313,7.0,11.0,89,0.00,,,0.01,Wunderground v.1.13,2013-05-09 15:07:00,
2013-05-09 10:09:00,48.8,45.7,29.99,NE,38,7.0,11.0,89,0.00,,,0.01,Wunderground v.1.13,2013-05-09 15:09:00,
2013-05-09 10:13:00,48.8,45.7,29.99,North,360,7.0,7.0,89,0.00,,,0.01,Wunderground v.1.13,2013-05-09 15:13:00,
2013-05-09 10:14:00,48.8,45.7,29.99,NNE,19,7.0,8.0,89,0.00,,,0.01,Wunderground v.1.13,2013-05-09 15:14:00,
2013-05-09 10:15:00,48.8,45.7,29.99,North,355,7.0,7.0,89,0.00,,,0.01,Wunderground v.1.13,2013-05-09 15:15:00,
2013-05-09 10:19:00,48.7,45.6,29.99,NE,34,7.0,9.0,89,0.00,,,0.01,Wunderground v.1.13,2013-05-09 15:19:00,
2013-05-09 10:20:00,48.7,45.6,29.99,NNE,22,7.0,7.0,89,0.00,,,0.01,Wunderground v.1.13,2013-05-09 15:20:00,
2013-05-09 10:21:00,48.7,45.6,29.99,NNE,13,8.0,8.0,89,0.00,,,0.01,Wunderground v.1.13,2013-05-09 15:21:00,
2013-05-09 10:22:00,48.6,45.5,29.99,North,5,8.0,8.0,89,0.00,,,0.01,Wunderground v.1.13,2013-05-09 15:22:00,
2013-05-09 10:25:00,48.6,45.5,29.99,NNE,24,8.0,10.0,89,0.00,,,0.01,Wunderground v.1.13,2013-05-09 15:25:00,
2013-05-09 10:27:00,48.5,45.4,30.00,NNW,342,8.0,10.0,89,0.00,,,0.01,Wunderground v.1.13,2013-05-09 15:27:00,
2013-05-09 10:28:00,48.5,45.4,29.99,North,360,8.0,10.0,89,0.00,,,0.01,Wunderground v.1.13,2013-05-09 15:28:00,
2013-05-09 10:31:00,48.4,45.3,30.00,NNW,338,8.0,8.0,89,0.00,,,0.01,Wunderground v.1.13,2013-05-09 15:31:00,
2013-05-09 10:34:00,48.3,45.2,30.00,North,5,7.0,9.0,89,0.00,,,0.01,Wunderground v.1.13,2013-05-09 15:34:00,
2013-05-09 10:35:00,48.3,45.2,30.00,NNE,32,7.0,7.0,89,0.00,,,0.01,Wunderground v.1.13,2013-05-09 15:35:00,
2013-05-09 10:36:00,48.3,45.2,30.00,NNW,331,7.0,7.0,89,0.00,,,0.01,Wunderground v.1.13,2013-05-09 15:36:00,
2013-05-09 10:37:00,48.3,45.2,30.00,NNE,15,7.0,7.0,89,0.00,,,0.01,Wunderground v.1.13,2013-05-09 15:37:00,
2013-05-09 10:40:00,48.2,45.1,30.00,NNE,15,7.0,9.0,89,0.00,,,0.01,Wunderground v.1.13,2013-05-09 15:40:00,
2013-05-09 10:42:00,48.2,45.1,30.00,NNE,17,7.0,11.0,89,0.00,,,0.01,Wunderground v.1.13,2013-05-09 15:42:00,
2013-05-09 10:43:00,48.1,45.0,30.00,NNE,15,7.0,11.0,89,0.00,,,0.01,Wunderground v.1.13,2013-05-09 15:43:00,
2013-05-09 10:45:00,48.1,45.0,30.00,NW,311,8.0,8.0,89,0.00,,,0.01,Wunderground v.1.13,2013-05-09 15:45:00,
2013-05-09 10:46:00,48.1,45.0,30.00,NNE,27,8.0,8.0,89,0.00,,,0.01,Wunderground v.1.13,2013-05-09 15:46:00,
2013-05-09 10:51:00,47.9,44.5,30.00,NE,34,8.0,9.0,88,0.00,,,0.01,Wunderground v.1.13,2013-05-09 15:51:00,
2013-05-09 10:52:00,47.8,44.4,30.00,North,10,8.0,10.0,88,0.00,,,0.01,Wunderground v.1.13,2013-05-09 15:52:00,
2013-05-09 10:55:00,47.7,44.3,30.00,NNE,17,8.0,9.0,88,0.00,,,0.01,Wunderground v.1.13,2013-05-09 15:55:00,
2013-05-09 10:57:00,47.5,44.1,30.00,North,5,9.0,10.0,88,0.00,,,0.01,Wunderground v.1.13,2013-05-09 15:57:00,
2013-05-09 10:59:00,47.4,44.0,30.00,NNE,23,10.0,12.0,88,0.00,,,0.01,Wunderground v.1.13,2013-05-09 15:59:00,
2013-05-09 11:00:00,47.3,43.9,30.00,NNE,20,10.0,11.0,88,0.00,,,0.01,Wunderground v.1.13,2013-05-09 16:00:00,
2013-05-09 11:03:00,47.0,43.6,30.01,NNW,336,11.0,12.0,88,0.00,,,0.01,Wunderground v.1.13,2013-05-09 16:03:00,
2013-05-09 11:05:00,46.9,43.5,30.01,NNE,17,11.0,11.0,88,0.00,,,0.01,Wunderground v.1.13,2013-05-09 16:05:00,
2013-05-09 11:06:00,46.9,43.5,30.01,NNE,33,11.0,11.0,88,0.00,,,0.01,Wunderground v.1.13,2013-05-09 16:06:00,
2013-05-09 11:08:00,46.9,43.5,30.01,WNW,303,11.0,11.0,88,0.00,,,0.01,Wunderground v.1.13,2013-05-09 16:08:00,
2013-05-09 11:12:00,46.8,43.4,30.01,NNE,13,9.0,10.0,88,0.00,,,0.01,Wunderground v.1.13,2013-05-09 16:12:00,
2013-05-09 11:13:00,46.8,43.4,30.01,NE,52,9.0,10.0,88,0.00,,,0.01,Wunderground v.1.13,2013-05-09 16:13:00,
2013-05-09 11:15:00,46.8,43.4,30.01,North,10,9.0,9.0,88,0.00,,,0.01,Wunderground v.1.13,2013-05-09 16:15:00,
2013-05-09 11:17:00,46.7,43.3,30.01,North,9,9.0,12.0,88,0.00,,,0.01,Wunderground v.1.13,2013-05-09 16:17:00,
2013-05-09 11:19:00,46.7,43.3,30.01,North,9,9.0,12.0,88,0.00,,,0.01,Wunderground v.1.13,2013-05-09 16:19:00,
2013-05-09 11:23:00,46.7,43.3,30.01,North,360,10.0,12.0,88,0.00,,,0.01,Wunderground v.1.13,2013-05-09 16:23:00,
2013-05-09 11:24:00,46.7,43.3,30.01,NNE,14,10.0,12.0,88,0.00,,,0.01,Wunderground v.1.13,2013-05-09 16:24:00,
2013-05-09 11:25:00,46.7,43.3,30.01,NE,38,10.0,10.0,88,0.00,,,0.01,Wunderground v.1.13,2013-05-09 16:25:00,
2013-05-09 11:26:00,46.7,43.3,30.01,NNE,28,9.0,10.0,88,0.00,,,0.01,Wunderground v.1.13,2013-05-09 16:26:00,
2013-05-09 11:29:00,46.7,43.3,30.01,NE,34,9.0,12.0,88,0.00,,,0.01,Wunderground v.1.13,2013-05-09 16:29:00,
2013-05-09 11:31:00,46.7,43.0,30.01,North,11,9.0,9.0,87,0.00,,,0.01,Wunderground v.1.13,2013-05-09 16:31:00,
2013-05-09 11:32:00,46.7,43.0,30.01,NW,326,9.0,9.0,87,0.00,,,0.01,Wunderground v.1.13,2013-05-09 16:32:00,
2013-05-09 11:34:00,46.6,42.9,30.02,NNW,338,9.0,9.0,87,0.00,,,0.01,Wunderground v.1.13,2013-05-09 16:34:00,
2013-05-09 11:37:00,46.7,43.0,30.01,NE,34,9.0,11.0,87,0.00,,,0.01,Wunderground v.1.13,2013-05-09 16:37:00,
2013-05-09 11:40:00,46.7,43.0,30.02,North,5,9.0,11.0,87,0.00,,,0.01,Wunderground v.1.13,2013-05-09 16:40:00,
2013-05-09 11:41:00,46.6,42.9,30.02,North,355,9.0,9.0,87,0.00,,,0.01,Wunderground v.1.13,2013-05-09 16:41:00,
2013-05-09 11:43:00,46.6,42.9,30.02,North,355,10.0,11.0,87,0.00,,,0.01,Wunderground v.1.13,2013-05-09 16:43:00,
2013-05-09 11:44:00,46.6,42.9,30.02,North,10,10.0,11.0,87,0.00,,,0.01,Wunderground v.1.13,2013-05-09 16:44:00,
2013-05-09 11:45:00,46.6,42.9,30.02,NE,41,10.0,14.0,87,0.00,,,0.01,Wunderground v.1.13,2013-05-09 16:45:00,
2013-05-09 11:46:00,46.6,42.9,30.02,North,9,10.0,13.0,87,0.00,,,0.01,Wunderground v.1.13,2013-05-09 16:46:00,
2013-05-09 11:48:00,46.6,42.9,30.02,NNE,30,10.0,15.0,87,0.00,,,0.01,Wunderground v.1.13,2013-05-09 16:48:00,
2013-05-09 11:49:00,46.6,42.9,30.02,NNW,328,10.0,15.0,87,0.00,,,0.01,Wunderground v.1.13,2013-05-09 16:49:00,
2013-05-09 11:51:00,46.6,42.9,30.02,NNE,26,10.0,12.0,87,0.00,,,0.01,Wunderground v.1.13,2013-05-09 16:51:00,
2013-05-09 11:52:00,46.6,42.9,30.02,NE,40,10.0,12.0,87,0.00,,,0.01,Wunderground v.1.13,2013-05-09 16:52:00,
2013-05-09 11:55:00,46.6,42.9,30.02,NNE,26,11.0,13.0,87,0.00,,,0.01,Wunderground v.1.13,2013-05-09 16:55:00,
2013-05-09 11:56:00,46.6,42.9,30.02,NE,39,10.0,11.0,87,0.00,,,0.01,Wunderground v.1.13,2013-05-09 16:56:00,
2013-05-09 11:59:00,46.8,43.1,30.02,North,360,10.0,11.0,87,0.00,,,0.01,Wunderground v.1.13,2013-05-09 16:59:00,
2013-05-09 12:01:00,46.9,43.2,30.02,NNE,17,9.0,13.0,87,0.00,,,0.01,Wunderground v.1.13,2013-05-09 17:01:00,
2013-05-09 12:04:00,46.9,43.2,30.02,NNW,345,9.0,13.0,87,0.00,,,0.01,Wunderground v.1.13,2013-05-09 17:04:00,
2013-05-09 12:05:00,46.9,43.2,30.02,NW,306,9.0,9.0,87,0.00,,,0.01,Wunderground v.1.13,2013-05-09 17:05:00,
2013-05-09 12:06:00,46.9,43.2,30.02,North,360,9.0,9.0,87,0.00,,,0.01,Wunderground v.1.13,2013-05-09 17:06:00,
2013-05-09 12:07:00,46.8,43.1,30.02,NW,315,9.0,9.0,87,0.00,,,0.01,Wunderground v.1.13,2013-05-09 17:07:00,
2013-05-09 12:09:00,46.8,42.8,30.02,NNE,21,10.0,10.0,86,0.00,,,0.01,Wunderground v.1.13,2013-05-09 17:09:00,
2013-05-09 12:10:00,46.8,42.8,30.02,North,355,10.0,10.0,86,0.00,,,0.01,Wunderground v.1.13,2013-05-09 17:10:00,
2013-05-09 12:15:00,46.7,42.7,30.02,NE,37,10.0,10.0,86,0.00,,,0.01,Wunderground v.1.13,2013-05-09 17:15:00,
2013-05-09 12:16:00,46.7,42.7,30.02,North,10,10.0,10.0,86,0.00,,,0.01,Wunderground v.1.13,2013-05-09 17:16:00,
2013-05-09 12:17:00,46.8,43.1,30.02,NNE,32,10.0,10.0,87,0.00,,,0.01,Wunderground v.1.13,2013-05-09 17:17:00,
2013-05-09 12:18:00,46.8,43.1,30.02,NNE,20,10.0,10.0,87,0.00,,,0.01,Wunderground v.1.13,2013-05-09 17:18:00,
2013-05-09 12:19:00,46.8,43.1,30.02,North,360,10.0,10.0,87,0.00,,,0.01,Wunderground v.1.13,2013-05-09 17:19:00,
2013-05-09 12:22:00,46.8,42.8,30.02,North,360,10.0,10.0,86,0.00,,,0.01,Wunderground v.1.13,2013-05-09 17:22:00,
2013-05-09 12:24:00,46.8,42.8,30.02,NE,34,9.0,11.0,86,0.00,,,0.01,Wunderground v.1.13,2013-05-09 17:24:00,
2013-05-09 12:25:00,46.8,42.8,30.02,NE,34,9.0,9.0,86,0.00,,,0.01,Wunderground v.1.13,2013-05-09 17:25:00,
2013-05-09 12:28:00,46.8,42.8,30.02,North,10,9.0,13.0,86,0.00,,,0.01,Wunderground v.1.13,2013-05-09 17:28:00,
2013-05-09 12:31:00,46.8,42.8,30.02,NW,321,8.0,8.0,86,0.00,,,0.01,Wunderground v.1.13,2013-05-09 17:31:00,
2013-05-09 12:33:00,46.8,42.8,30.02,North,360,9.0,13.0,86,0.00,,,0.01,Wunderground v.1.13,2013-05-09 17:33:00,
2013-05-09 12:34:00,46.8,42.8,30.02,NE,41,9.0,13.0,86,0.00,,,0.01,Wunderground v.1.13,2013-05-09 17:34:00,
2013-05-09 12:37:00,46.9,42.9,30.02,NE,37,10.0,11.0,86,0.00,,,0.01,Wunderground v.1.13,2013-05-09 17:37:00,
2013-05-09 12:38:00,46.9,42.9,30.02,NE,41,9.0,11.0,86,0.00,,,0.01,Wunderground v.1.13,2013-05-09 17:38:00,
2013-05-09 12:39:00,46.9,42.9,30.02,NNE,15,9.0,11.0,86,0.00,,,0.01,Wunderground v.1.13,2013-05-09 17:39:00,
2013-05-09 12:41:00,47.0,43.0,30.02,NE,38,9.0,9.0,86,0.00,,,0.01,Wunderground v.1.13,2013-05-09 17:41:00,
2013-05-09 12:44:00,47.1,43.1,30.02,North,360,9.0,13.0,86,0.00,,,0.01,Wunderground v.1.13,2013-05-09 17:44:00,
2013-05-09 12:46:00,47.1,42.8,30.02,NNE,26,9.0,11.0,85,0.00,,,0.01,Wunderground v.1.13,2013-05-09 17:46:00,
2013-05-09 12:48:00,47.2,42.9,30.02,NNE,32,10.0,11.0,85,0.00,,,0.01,Wunderground v.1.13,2013-05-09 17:48:00,
2013-05-09 12:51:00,47.2,42.9,30.02,NNE,24,11.0,15.0,85,0.00,,,0.01,Wunderground v.1.13,2013-05-09 17:51:00,
2013-05-09 12:52:00,47.2,42.9,30.02,NNE,18,11.0,15.0,85,0.00,,,0.01,Wunderground v.1.13,2013-05-09 17:52:00,
2013-05-09 12:55:00,47.3,43.0,30.02,North,5,11.0,11.0,85,0.00,,,0.01,Wunderground v.1.13,2013-05-09 17:55:00,
2013-05-09 12:56:00,47.3,43.0,30.02,NNE,18,10.0,11.0,85,0.00,,,0.01,Wunderground v.1.13,2013-05-09 17:56:00,
2013-05-09 12:59:00,47.3,43.0,30.03,North,355,11.0,16.0,85,0.00,,,0.01,Wunderground v.1.13,2013-05-09 17:59:00,
2013-05-09 13:00:00,47.3,43.0,30.03,North,355,10.0,14.0,85,0.00,,,0.01,Wunderground v.1.13,2013-05-09 18:00:00,
2013-05-09 13:02:00,47.3,42.7,30.02,North,5,10.0,14.0,84,0.00,,,0.01,Wunderground v.1.13,2013-05-09 18:02:00,
2013-05-09 13:05:00,47.4,42.8,30.03,NNE,30,11.0,14.0,84,0.00,,,0.01,Wunderground v.1.13,2013-05-09 18:05:00,
2013-05-09 13:06:00,47.4,42.8,30.03,NNE,30,11.0,15.0,84,0.00,,,0.01,Wunderground v.1.13,2013-05-09 18:06:00,
2013-05-09 13:07:00,47.4,42.8,30.03,NNE,26,11.0,15.0,84,0.00,,,0.01,Wunderground v.1.13,2013-05-09 18:07:00,
2013-05-09 13:09:00,47.4,42.8,30.03,North,5,11.0,15.0,84,0.00,,,0.01,Wunderground v.1.13,2013-05-09 18:09:00,
2013-05-09 13:13:00,47.3,42.7,30.03,NE,51,12.0,16.0,84,0.00,,,0.01,Wunderground v.1.13,2013-05-09 18:13:00,
2013-05-09 13:14:00,47.3,42.7,30.03,NNE,17,12.0,16.0,84,0.00,,,0.01,Wunderground v.1.13,2013-05-09 18:14:00,
2013-05-09 13:15:00,47.3,42.7,30.03,NE,51,12.0,12.0,84,0.00,,,0.01,Wunderground v.1.13,2013-05-09 18:15:00,
2013-05-09 13:17:00,47.3,42.7,30.03,NE,46,12.0,15.0,84,0.00,,,0.01,Wunderground v.1.13,2013-05-09 18:17:00,
2013-05-09 13:19:00,47.3,42.4,30.03,ENE,63,13.0,15.0,83,0.00,,,0.01,Wunderground v.1.13,2013-05-09 18:19:00,
2013-05-09 13:20:00,47.2,42.3,30.03,NE,34,13.0,13.0,83,0.00,,,0.01,Wunderground v.1.13,2013-05-09 18:20:00,
2013-05-09 13:21:00,47.2,42.3,30.03,NE,46,13.0,13.0,83,0.00,,,0.01,Wunderground v.1.13,2013-05-09 18:21:00,
2013-05-09 13:22:00,47.2,42.6,30.03,NE,40,12.0,13.0,84,0.00,,,0.01,Wunderground v.1.13,2013-05-09 18:22:00,
2013-05-09 13:28:00,47.3,42.7,30.03,NNE,29,11.0,13.0,84,0.00,,,0.01,Wunderground v.1.13,2013-05-09 18:28:00,
2013-05-09 13:31:00,47.5,42.9,30.03,NE,34,10.0,14.0,84,0.00,,,0.01,Wunderground v.1.13,2013-05-09 18:31:00,
2013-05-09 13:32:00,47.6,42.7,30.03,NE,42,11.0,15.0,83,0.00,,,0.01,Wunderground v.1.13,2013-05-09 18:32:00,
2013-05-09 13:33:00,47.6,42.7,30.03,North,355,11.0,15.0,83,0.00,,,0.01,Wunderground v.1.13,2013-05-09 18:33:00,
2013-05-09 13:34:00,47.7,42.8,30.03,NNE,12,11.0,15.0,83,0.00,,,0.01,Wunderground v.1.13,2013-05-09 18:34:00,
2013-05-09 13:37:00,47.8,42.9,30.03,NNE,19,11.0,11.0,83,0.00,,,0.01,Wunderground v.1.13,2013-05-09 18:37:00,
2013-05-09 13:39:00,47.9,43.0,30.03,NE,50,12.0,15.0,83,0.00,,,0.01,Wunderground v.1.13,2013-05-09 18:39:00,
2013-05-09 13:40:00,48.0,43.1,30.03,NNE,28,12.0,16.0,83,0.00,,,0.01,Wunderground v.1.13,2013-05-09 18:40:00,
2013-05-09 13:43:00,48.1,42.9,30.03,NNE,17,12.0,16.0,82,0.00,,,0.01,Wunderground v.1.13,2013-05-09 18:43:00,
2013-05-09 13:45:00,48.1,42.9,30.03,NE,46,12.0,21.0,82,0.00,,,0.01,Wunderground v.1.13,2013-05-09 18:45:00,
2013-05-09 13:46:00,48.1,42.9,30.03,NE,46,12.0,21.0,82,0.00,,,0.01,Wunderground v.1.13,2013-05-09 18:46:00,
2013-05-09 13:47:00,48.1,42.5,30.03,NE,49,13.0,21.0,81,0.00,,,0.01,Wunderground v.1.13,2013-05-09 18:47:00,
2013-05-09 13:48:00,48.0,42.4,30.03,NE,43,13.0,21.0,81,0.00,,,0.01,Wunderground v.1.13,2013-05-09 18:48:00,
2013-05-09 13:52:00,47.9,42.3,30.03,NE,49,14.0,18.0,81,0.00,,,0.01,Wunderground v.1.13,2013-05-09 18:52:00,
2013-05-09 13:53:00,47.8,42.3,30.03,NE,49,14.0,18.0,81,0.00,,,0.01,Wunderground v.1.13,2013-05-09 18:53:00,
2013-05-09 13:54:00,47.8,42.3,30.03,NE,36,15.0,18.0,81,0.00,,,0.01,Wunderground v.1.13,2013-05-09 18:54:00,
2013-05-09 13:58:00,47.7,42.2,30.03,NNE,32,15.0,21.0,81,0.00,,,0.01,Wunderground v.1.13,2013-05-09 18:58:00,
2013-05-09 14:00:00,47.7,42.2,30.03,NNE,17,14.0,16.0,81,0.00,,,0.01,Wunderground v.1.13,2013-05-09 19:00:00,
2013-05-09 14:02:00,47.7,42.2,30.03,NNE,29,14.0,16.0,81,0.00,,,0.01,Wunderground v.1.13,2013-05-09 19:02:00,
2013-05-09 14:04:00,47.6,42.1,30.03,NE,43,14.0,16.0,81,0.00,,,0.01,Wunderground v.1.13,2013-05-09 19:04:00,
2013-05-09 14:05:00,47.7,42.2,30.03,NNE,32,14.0,14.0,81,0.00,,,0.01,Wunderground v.1.13,2013-05-09 19:05:00,
2013-05-09 14:07:00,47.6,41.7,30.03,NE,36,14.0,14.0,80,0.00,,,0.01,Wunderground v.1.13,2013-05-09 19:07:00,
2013-05-09 14:09:00,47.6,41.7,30.03,NE,52,14.0,15.0,80,0.00,,,0.01,Wunderground v.1.13,2013-05-09 19:09:00,
2013-05-09 14:11:00,47.5,41.6,30.03,NNE,12,14.0,15.0,80,0.00,,,0.01,Wunderground v.1.13,2013-05-09 19:11:00,
2013-05-09 14:12:00,47.5,41.6,30.03,North,11,14.0,15.0,80,0.00,,,0.01,Wunderground v.1.13,2013-05-09 19:12:00,
2013-05-09 14:14:00,47.5,41.6,30.03,North,5,13.0,15.0,80,0.00,,,0.01,Wunderground v.1.13,2013-05-09 19:14:00,
2013-05-09 14:17:00,47.4,41.5,30.03,NE,38,13.0,18.0,80,0.00,,,0.01,Wunderground v.1.13,2013-05-09 19:17:00,
2013-05-09 14:19:00,47.3,41.4,30.03,NNE,17,14.0,18.0,80,0.00,,,0.01,Wunderground v.1.13,2013-05-09 19:19:00,
2013-05-09 14:21:00,47.1,41.2,30.03,NE,35,14.0,26.0,80,0.00,,,0.01,Wunderground v.1.13,2013-05-09 19:21:00,
2013-05-09 14:23:00,47.0,41.1,30.03,NNE,19,15.0,26.0,80,0.00,,,0.01,Wunderground v.1.13,2013-05-09 19:23:00,
2013-05-09 14:27:00,46.9,41.4,30.03,NE,49,15.0,19.0,81,0.00,,,0.01,Wunderground v.1.13,2013-05-09 19:27:00,
2013-05-09 14:28:00,46.9,41.4,30.03,NNE,30,15.0,19.0,81,0.00,,,0.01,Wunderground v.1.13,2013-05-09 19:28:00,
2013-05-09 14:31:00,46.9,41.4,30.03,NE,41,13.0,13.0,81,0.00,,,0.01,Wunderground v.1.13,2013-05-09 19:31:00,
2013-05-09 14:32:00,47.0,41.5,30.03,NNE,15,13.0,13.0,81,0.00,,,0.01,Wunderground v.1.13,2013-05-09 19:32:00,
2013-05-09 14:35:00,47.1,41.6,30.03,NNE,20,12.0,13.0,81,0.00,,,0.01,Wunderground v.1.13,2013-05-09 19:35:00,
2013-05-09 14:36:00,47.1,41.6,30.03,North,5,12.0,12.0,81,0.00,,,0.01,Wunderground v.1.13,2013-05-09 19:36:00,
2013-05-09 14:38:00,47.1,41.6,30.04,NNE,21,11.0,12.0,81,0.00,,,0.01,Wunderground v.1.13,2013-05-09 19:38:00,
2013-05-09 14:40:00,46.9,41.4,30.04,North,5,11.0,14.0,81,0.00,,,0.01,Wunderground v.1.13,2013-05-09 19:40:00,
2013-05-09 14:42:00,46.8,41.3,30.04,NE,34,11.0,13.0,81,0.00,,,0.01,Wunderground v.1.13,2013-05-09 19:42:00,
2013-05-09 14:43:00,46.8,41.3,30.04,NE,37,11.0,13.0,81,0.00,,,0.01,Wunderground v.1.13,2013-05-09 19:43:00,
2013-05-09 14:44:00,46.8,41.3,30.04,NE,34,11.0,13.0,81,0.00,,,0.01,Wunderground v.1.13,2013-05-09 19:44:00,
2013-05-09 14:47:00,46.7,41.2,30.04,NNE,24,11.0,16.0,81,0.00,,,0.01,Wunderground v.1.13,2013-05-09 19:47:00,
2013-05-09 14:48:00,46.6,40.8,30.04,WNW,302,11.0,16.0,80,0.00,,,0.01,Wunderground v.1.13,2013-05-09 19:48:00,
2013-05-09 14:50:00,46.5,40.7,30.04,NE,48,13.0,21.0,80,0.00,,,0.01,Wunderground v.1.13,2013-05-09 19:50:00,
2013-05-09 14:53:00,46.5,40.7,30.04,ENE,70,15.0,16.0,80,0.00,,,0.01,Wunderground v.1.13,2013-05-09 19:53:00,
2013-05-09 14:54:00,46.5,40.7,30.04,NNE,30,15.0,16.0,80,0.00,,,0.01,Wunderground v.1.13,2013-05-09 19:54:00,
2013-05-09 14:56:00,46.5,40.7,30.04,NE,40,16.0,16.0,80,0.00,,,0.01,Wunderground v.1.13,2013-05-09 19:56:00,
2013-05-09 14:57:00,46.5,40.7,30.04,NE,44,16.0,16.0,80,0.00,,,0.01,Wunderground v.1.13,2013-05-09 19:57:00,
2013-05-09 14:59:00,46.6,40.8,30.04,NNE,15,15.0,16.0,80,0.00,,,0.01,Wunderground v.1.13,2013-05-09 19:59:00,
2013-05-09 15:02:00,46.7,40.9,30.04,NNE,33,14.0,15.0,80,0.00,,,0.01,Wunderground v.1.13,2013-05-09 20:02:00,
2013-05-09 15:03:00,46.8,41.0,30.04,NE,34,14.0,15.0,80,0.00,,,0.01,Wunderground v.1.13,2013-05-09 20:03:00,
2013-05-09 15:04:00,46.8,41.0,30.04,NE,38,14.0,15.0,80,0.00,,,0.01,Wunderground v.1.13,2013-05-09 20:04:00,
2013-05-09 15:07:00,46.9,41.1,30.04,ENE,61,13.0,13.0,80,0.00,,,0.01,Wunderground v.1.13,2013-05-09 20:07:00,
2013-05-09 15:08:00,46.9,41.1,30.04,NNE,16,12.0,14.0,80,0.00,,,0.01,Wunderground v.1.13,2013-05-09 20:08:00,
2013-05-09 15:12:00,46.9,40.7,30.04,NNE,14,13.0,18.0,79,0.00,,,0.01,Wunderground v.1.13,2013-05-09 20:12:00,
2013-05-09 15:13:00,46.9,40.7,30.04,NNE,20,13.0,18.0,79,0.00,,,0.01,Wunderground v.1.13,2013-05-09 20:13:00,
2013-05-09 15:16:00,47.1,40.9,30.04,NNE,15,13.0,18.0,79,0.00,,,0.01,Wunderground v.1.13,2013-05-09 20:16:00,
2013-05-09 15:18:00,47.1,40.6,30.04,North,355,14.0,18.0,78,0.00,,,0.01,Wunderground v.1.13,2013-05-09 20:18:00,
2013-05-09 15:21:00,47.0,40.5,30.04,NE,35,14.0,18.0,78,0.00,,,0.01,Wunderground v.1.13,2013-05-09 20:21:00,
2013-05-09 15:22:00,47.0,40.5,30.04,NNE,18,14.0,24.0,78,0.00,,,0.01,Wunderground v.1.13,2013-05-09 20:22:00,
2013-05-09 15:24:00,46.9,40.4,30.04,NNE,29,15.0,24.0,78,0.00,,,0.01,Wunderground v.1.13,2013-05-09 20:24:00,
2013-05-09 15:26:00,46.9,40.4,30.04,NE,42,16.0,16.0,78,0.00,,,0.01,Wunderground v.1.13,2013-05-09 20:26:00,
2013-05-09 15:28:00,46.9,40.7,30.04,NNE,13,16.0,20.0,79,0.00,,,0.01,Wunderground v.1.13,2013-05-09 20:28:00,
2013-05-09 15:29:00,46.9,40.7,30.04,NE,42,16.0,20.0,79,0.00,,,0.01,Wunderground v.1.13,2013-05-09 20:29:00,
2013-05-09 15:31:00,46.9,40.7,30.04,NNE,29,16.0,18.0,79,0.00,,,0.01,Wunderground v.1.13,2013-05-09 20:31:00,
2013-05-09 15:32:00,46.9,40.4,30.04,NNE,12,16.0,18.0,78,0.00,,,0.01,Wunderground v.1.13,2013-05-09 20:32:00,
2013-05-09 15:36:00,46.9,40.4,30.04,NE,36,15.0,15.0,78,0.00,,,0.01,Wunderground v.1.13,2013-05-09 20:36:00,
2013-05-09 15:37:00,46.9,40.4,30.04,NE,39,15.0,15.0,78,0.00,,,0.01,Wunderground v.1.13,2013-05-09 20:37:00,
2013-05-09 15:39:00,46.9,40.7,30.04,North,10,14.0,15.0,79,0.00,,,0.01,Wunderground v.1.13,2013-05-09 20:39:00,
2013-05-09 15:41:00,46.9,40.4,30.04,NE,38,13.0,13.0,78,0.00,,,0.01,Wunderground v.1.13,2013-05-09 20:41:00,
2013-05-09 15:42:00,47.0,40.5,30.04,NNE,25,12.0,14.0,78,0.00,,,0.01,Wunderground v.1.13,2013-05-09 20:42:00,
2013-05-09 15:44:00,47.0,40.5,30.04,NW,307,11.0,14.0,78,0.00,,,0.01,Wunderground v.1.13,2013-05-09 20:44:00,
2013-05-09 15:45:00,47.1,40.6,30.04,NNE,30,11.0,14.0,78,0.00,,,0.01,Wunderground v.1.13,2013-05-09 20:45:00,
2013-05-09 15:50:00,47.0,39.5,30.04,North,360,13.0,20.0,75,0.00,,,0.01,Wunderground v.1.13,2013-05-09 20:50:00,
2013-05-09 15:51:00,47.0,39.5,30.04,NE,42,14.0,14.0,75,0.00,,,0.01,Wunderground v.1.13,2013-05-09 20:51:00,
2013-05-09 15:52:00,47.0,39.5,30.04,NNE,22,14.0,14.0,75,0.00,,,0.01,Wunderground v.1.13,2013-05-09 20:52:00,
2013-05-09 15:54:00,47.0,39.5,30.04,NNE,21,14.0,14.0,75,0.00,,,0.01,Wunderground v.1.13,2013-05-09 20:54:00,
2013-05-09 15:56:00,47.0,39.5,30.04,North,355,15.0,15.0,75,0.00,,,0.01,Wunderground v.1.13,2013-05-09 20:56:00,
2013-05-09 15:58:00,47.0,39.1,30.04,NNE,25,15.0,15.0,74,0.00,,,0.01,Wunderground v.1.13,2013-05-09 20:58:00,
2013-05-09 16:01:00,47.0,39.1,30.04,NNE,30,14.0,25.0,74,0.00,,,0.01,Wunderground v.1.13,2013-05-09 21:01:00,
2013-05-09 16:02:00,47.0,39.1,30.04,NE,50,15.0,25.0,74,0.00,,,0.01,Wunderground v.1.13,2013-05-09 21:02:00,
2013-05-09 16:05:00,47.1,39.2,30.04,NE,40,15.0,15.0,74,0.00,,,0.01,Wunderground v.1.13,2013-05-09 21:05:00,
2013-05-09 16:06:00,47.2,39.3,30.04,NNE,26,15.0,16.0,74,0.00,,,0.01,Wunderground v.1.13,2013-05-09 21:06:00,
2013-05-09 16:07:00,47.2,39.3,30.04,NNE,25,15.0,16.0,74,0.00,,,0.01,Wunderground v.1.13,2013-05-09 21:07:00,
2013-05-09 16:09:00,47.4,39.5,30.04,North,9,15.0,16.0,74,0.00,,,0.01,Wunderground v.1.13,2013-05-09 21:09:00,
2013-05-09 16:10:00,47.4,39.5,30.04,NNE,24,14.0,14.0,74,0.00,,,0.01,Wunderground v.1.13,2013-05-09 21:10:00,
2013-05-09 16:13:00,47.6,39.4,30.03,NE,40,13.0,19.0,73,0.00,,,0.01,Wunderground v.1.13,2013-05-09 21:13:00,
2013-05-09 16:14:00,47.6,39.4,30.04,NNE,19,12.0,19.0,73,0.00,,,0.01,Wunderground v.1.13,2013-05-09 21:14:00,
2013-05-09 16:16:00,47.6,39.4,30.04,NNE,25,13.0,16.0,73,0.00,,,0.01,Wunderground v.1.13,2013-05-09 21:16:00,
2013-05-09 16:17:00,47.6,39.4,30.03,NE,37,13.0,18.0,73,0.00,,,0.01,Wunderground v.1.13,2013-05-09 21:17:00,
2013-05-09 16:20:00,47.4,38.8,30.04,NE,45,14.0,14.0,72,0.00,,,0.01,Wunderground v.1.13,2013-05-09 21:20:00,
2013-05-09 16:21:00,47.5,38.9,30.04,NE,41,14.0,14.0,72,0.00,,,0.01,Wunderground v.1.13,2013-05-09 21:21:00,
2013-05-09 16:24:00,47.5,38.6,30.04,NE,41,15.0,15.0,71,0.00,,,0.01,Wunderground v.1.13,2013-05-09 21:24:00,
2013-05-09 16:26:00,47.6,38.7,30.04,NE,36,14.0,15.0,71,0.00,,,0.01,Wunderground v.1.13,2013-05-09 21:26:00,
2013-05-09 16:29:00,47.7,38.8,30.04,NE,40,12.0,15.0,71,0.00,,,0.01,Wunderground v.1.13,2013-05-09 21:29:00,
2013-05-09 16:30:00,47.7,38.8,30.04,NNE,12,11.0,18.0,71,0.00,,,0.01,Wunderground v.1.13,2013-05-09 21:30:00,
2013-05-09 16:31:00,47.7,38.8,30.04,NNE,15,11.0,18.0,71,0.00,,,0.01,Wunderground v.1.13,2013-05-09 21:31:00,
2013-05-09 16:33:00,47.7,38.4,30.04,NE,45,11.0,18.0,70,0.00,,,0.01,Wunderground v.1.13,2013-05-09 21:33:00,
2013-05-09 16:36:00,47.5,38.2,30.04,NE,36,12.0,14.0,70,0.00,,,0.01,Wunderground v.1.13,2013-05-09 21:36:00,
2013-05-09 16:37:00,47.5,38.2,30.04,NW,306,12.0,14.0,70,0.00,,,0.01,Wunderground v.1.13,2013-05-09 21:37:00,
2013-05-09 16:38:00,47.4,38.1,30.04,NNE,15,12.0,18.0,70,0.00,,,0.01,Wunderground v.1.13,2013-05-09 21:38:00,
2013-05-09 16:39:00,47.4,37.7,30.04,North,360,13.0,18.0,69,0.00,,,0.01,Wunderground v.1.13,2013-05-09 21:39:00,
2013-05-09 16:42:00,47.4,37.7,30.04,NE,36,14.0,15.0,69,0.00,,,0.01,Wunderground v.1.13,2013-05-09 21:42:00,
2013-05-09 16:44:00,47.4,38.1,30.04,NNE,33,12.0,15.0,70,0.00,,,0.01,Wunderground v.1.13,2013-05-09 21:44:00,
2013-05-09 16:45:00,47.4,37.7,30.04,North,5,12.0,16.0,69,0.00,,,0.01,Wunderground v.1.13,2013-05-09 21:45:00,
2013-05-09 16:46:00,47.4,37.7,30.04,North,355,12.0,16.0,69,0.00,,,0.01,Wunderground v.1.13,2013-05-09 21:46:00,
2013-05-09 16:49:00,47.4,37.4,30.04,NNE,13,11.0,16.0,68,0.00,,,0.01,Wunderground v.1.13,2013-05-09 21:49:00,
2013-05-09 16:52:00,47.5,37.8,30.04,NE,42,9.0,11.0,69,0.00,,,0.01,Wunderground v.1.13,2013-05-09 21:52:00,
2013-05-09 16:53:00,47.5,37.8,30.04,NNE,25,9.0,12.0,69,0.00,,,0.01,Wunderground v.1.13,2013-05-09 21:53:00,
2013-05-09 16:54:00,47.5,37.8,30.04,North,355,10.0,12.0,69,0.00,,,0.01,Wunderground v.1.13,2013-05-09 21:54:00,
2013-05-09 16:57:00,47.4,37.4,30.04,NNE,20,10.0,13.0,68,0.00,,,0.01,Wunderground v.1.13,2013-05-09 21:57:00,
2013-05-09 16:58:00,47.3,37.3,30.04,NE,47,10.0,13.0,68,0.00,,,0.01,Wunderground v.1.13,2013-05-09 21:58:00,
2013-05-09 17:00:00,47.2,37.2,30.04,NE,40,11.0,16.0,68,0.00,,,0.01,Wunderground v.1.13,2013-05-09 22:00:00,
2013-05-09 17:01:00,47.2,37.2,30.04,NE,38,11.0,16.0,68,0.00,,,0.01,Wunderground v.1.13,2013-05-09 22:01:00,
2013-05-09 17:02:00,47.1,37.1,30.04,NW,325,11.0,19.0,68,0.00,,,0.01,Wunderground v.1.13,2013-05-09 22:02:00,
2013-05-09 17:04:00,47.0,36.6,30.04,NE,49,12.0,19.0,67,0.00,,,0.01,Wunderground v.1.13,2013-05-09 22:04:00,
2013-05-09 17:05:00,46.9,36.5,30.04,North,9,12.0,12.0,67,0.00,,,0.01,Wunderground v.1.13,2013-05-09 22:05:00,
2013-05-09 17:06:00,46.9,36.9,30.04,North,355,12.0,14.0,68,0.00,,,0.01,Wunderground v.1.13,2013-05-09 22:06:00,
2013-05-09 17:10:00,46.8,36.8,30.04,NNW,336,12.0,12.0,68,0.00,,,0.01,Wunderground v.1.13,2013-05-09 22:10:00,
2013-05-09 17:11:00,46.8,36.4,30.04,NNE,25,12.0,18.0,67,0.00,,,0.01,Wunderground v.1.13,2013-05-09 22:11:00,
2013-05-09 17:16:00,46.5,36.1,30.04,NNW,334,13.0,13.0,67,0.00,,,0.01,Wunderground v.1.13,2013-05-09 22:16:00,
2013-05-09 17:19:00,46.5,36.5,30.04,NE,36,13.0,15.0,68,0.00,,,0.01,Wunderground v.1.13,2013-05-09 22:19:00,
2013-05-09 17:21:00,46.6,36.6,30.04,NNE,19,13.0,13.0,68,0.00,,,0.01,Wunderground v.1.13,2013-05-09 22:21:00,
2013-05-09 17:23:00,46.7,36.7,30.04,NNE,32,12.0,13.0,68,0.00,,,0.01,Wunderground v.1.13,2013-05-09 22:23:00,
2013-05-09 17:28:00,46.7,36.3,30.05,NE,44,11.0,14.0,67,0.00,,,0.01,Wunderground v.1.13,2013-05-09 22:28:00,
2013-05-09 17:31:00,46.5,36.1,30.04,North,360,12.0,15.0,67,0.00,,,0.01,Wunderground v.1.13,2013-05-09 22:31:00,
2013-05-09 17:33:00,46.4,36.0,30.04,NE,49,13.0,21.0,67,0.00,,,0.01,Wunderground v.1.13,2013-05-09 22:33:00,
2013-05-09 17:35:00,46.4,36.4,30.05,NNE,26,15.0,18.0,68,0.00,,,0.01,Wunderground v.1.13,2013-05-09 22:35:00,
2013-05-09 17:36:00,46.3,35.9,30.05,NE,34,16.0,18.0,67,0.00,,,0.01,Wunderground v.1.13,2013-05-09 22:36:00,
2013-05-09 17:39:00,46.3,35.9,30.04,NE,46,16.0,18.0,67,0.00,,,0.01,Wunderground v.1.13,2013-05-09 22:39:00,
2013-05-09 17:41:00,46.3,36.3,30.04,NNE,32,15.0,15.0,68,0.00,,,0.01,Wunderground v.1.13,2013-05-09 22:41:00,
2013-05-09 17:44:00,46.4,36.4,30.04,NE,36,14.0,15.0,68,0.00,,,0.01,Wunderground v.1.13,2013-05-09 22:44:00,
2013-05-09 17:46:00,46.4,36.4,30.05,NNE,26,13.0,13.0,68,0.00,,,0.01,Wunderground v.1.13,2013-05-09 22:46:00,
2013-05-09 17:47:00,46.4,36.0,30.05,NE,42,13.0,13.0,67,0.00,,,0.01,Wunderground v.1.13,2013-05-09 22:47:00,
2013-05-09 17:49:00,46.3,36.3,30.05,North,360,12.0,18.0,68,0.00,,,0.01,Wunderground v.1.13,2013-05-09 22:49:00,
2013-05-09 17:53:00,46.2,36.2,30.05,North,9,13.0,14.0,68,0.00,,,0.01,Wunderground v.1.13,2013-05-09 22:53:00,
2013-05-09 17:54:00,46.1,36.1,30.05,North,9,13.0,15.0,68,0.00,,,0.01,Wunderground v.1.13,2013-05-09 22:54:00,
2013-05-09 17:55:00,46.1,36.1,30.05,NE,44,13.0,13.0,68,0.00,,,0.01,Wunderground v.1.13,2013-05-09 22:55:00,
2013-05-09 18:37:00,45.8,36.2,30.06,NE,45,13.0,16.0,69,0.00,,,0.10,Wunderground v.1.13,2013-05-09 23:37:00,
2013-05-09 18:39:00,45.8,35.8,30.06,NE,45,17.0,21.0,68,0.00,,,0.10,Wunderground v.1.13,2013-05-09 23:39:00,
2013-05-09 18:41:00,45.8,36.2,30.06,NE,45,16.0,20.0,69,0.00,,,0.10,Wunderground v.1.13,2013-05-09 23:41:00,
2013-05-09 18:43:00,45.8,35.8,30.06,NNE,23,17.0,25.0,68,0.00,,,0.10,Wunderground v.1.13,2013-05-09 23:43:00,
2013-05-09 18:45:00,45.8,35.8,30.06,NE,45,15.0,22.0,68,0.00,,,0.10,Wunderground v.1.13,2013-05-09 23:45:00,
2013-05-09 18:47:00,45.9,35.6,30.06,NNE,23,14.0,20.0,67,0.00,,,0.10,Wunderground v.1.13,2013-05-09 23:47:00,
2013-05-09 18:49:00,45.9,35.6,30.06,NE,45,17.0,23.0,67,0.00,,,0.10,Wunderground v.1.13,2013-05-09 23:49:00,
2013-05-09 18:51:00,45.9,35.6,30.06,NE,45,12.0,16.0,67,0.00,,,0.10,Wunderground v.1.13,2013-05-09 23:51:00,
2013-05-09 18:53:00,45.9,35.2,30.06,NE,45,15.0,19.0,66,0.00,,,0.10,Wunderground v.1.13,2013-05-09 23:53:00,
2013-05-09 18:55:00,45.9,35.6,30.06,NE,45,10.0,12.0,67,0.00,,,0.10,Wunderground v.1.13,2013-05-09 23:55:00,
2013-05-09 18:57:00,45.9,35.2,30.06,NE,45,14.0,19.0,66,0.00,,,0.10,Wunderground v.1.13,2013-05-09 23:57:00,
2013-05-09 18:59:00,45.9,34.4,30.06,NE,45,14.0,20.0,64,0.00,,,0.10,Wunderground v.1.13,2013-05-09 23:59:00,
2013-05-09 19:01:00,45.9,34.8,30.06,NE,45,16.0,20.0,65,0.00,,,0.10,Wunderground v.1.13,2013-05-10 00:01:00,
2013-05-09 19:03:00,45.9,34.4,30.06,NE,45,16.0,20.0,64,0.00,,,0.10,Wunderground v.1.13,2013-05-10 00:03:00,
2013-05-09 19:05:00,45.9,34.8,30.06,NNE,23,13.0,18.0,65,0.00,,,0.10,Wunderground v.1.13,2013-05-10 00:05:00,
2013-05-09 19:07:00,45.9,34.8,30.06,NE,45,15.0,18.0,65,0.00,,,0.10,Wunderground v.1.13,2013-05-10 00:07:00,
2013-05-09 19:09:00,45.8,34.7,30.06,NE,45,13.0,16.0,65,0.00,,,0.10,Wunderground v.1.13,2013-05-10 00:09:00,
2013-05-09 19:11:00,45.9,35.2,30.06,NE,45,10.0,12.0,66,0.00,,,0.10,Wunderground v.1.13,2013-05-10 00:11:00,
2013-05-09 19:13:00,45.9,35.2,30.06,NE,45,12.0,18.0,66,0.00,,,0.10,Wunderground v.1.13,2013-05-10 00:13:00,
2013-05-09 19:15:00,45.9,34.8,30.06,NE,45,11.0,16.0,65,0.00,,,0.10,Wunderground v.1.13,2013-05-10 00:15:00,
2013-05-09 19:17:00,45.9,34.8,30.06,NE,45,9.0,10.0,65,0.00,,,0.10,Wunderground v.1.13,2013-05-10 00:17:00,
2013-05-09 19:19:00,45.9,34.8,30.06,NE,45,9.0,12.0,65,0.00,,,0.10,Wunderground v.1.13,2013-05-10 00:19:00,
2013-05-09 19:21:00,46.0,35.3,30.06,NE,45,8.0,12.0,66,0.00,,,0.10,Wunderground v.1.13,2013-05-10 00:21:00,
2013-05-09 19:23:00,46.0,35.3,30.06,NE,45,8.0,11.0,66,0.00,,,0.10,Wunderground v.1.13,2013-05-10 00:23:00,
2013-05-09 19:25:00,46.0,34.9,30.06,NE,45,12.0,16.0,65,0.00,,,0.10,Wunderground v.1.13,2013-05-10 00:25:00,
2013-05-09 19:27:00,46.0,34.5,30.06,NE,45,11.0,14.0,64,0.00,,,0.10,Wunderground v.1.13,2013-05-10 00:27:00,
2013-05-09 19:29:00,46.1,34.6,30.06,NNE,23,10.0,12.0,64,0.00,,,0.10,Wunderground v.1.13,2013-05-10 00:29:00,
2013-05-09 19:31:00,46.1,34.6,30.06,NNE,23,13.0,18.0,64,0.00,,,0.10,Wunderground v.1.13,2013-05-10 00:31:00,
2013-05-09 19:33:00,46.1,34.6,30.06,NNE,23,9.0,13.0,64,0.00,,,0.10,Wunderground v.1.13,2013-05-10 00:33:00,
2013-05-09 19:35:00,46.1,34.6,30.06,NNE,23,9.0,11.0,64,0.00,,,0.10,Wunderground v.1.13,2013-05-10 00:35:00,
2013-05-09 19:37:00,46.1,34.2,30.06,NE,45,9.0,13.0,63,0.00,,,0.10,Wunderground v.1.13,2013-05-10 00:37:00,
2013-05-09 19:39:00,46.2,33.9,30.06,NE,45,10.0,14.0,62,0.00,,,0.10,Wunderground v.1.13,2013-05-10 00:39:00,
2013-05-09 19:41:00,46.2,33.9,30.06,NE,45,11.0,15.0,62,0.00,,,0.10,Wunderground v.1.13,2013-05-10 00:41:00,
2013-05-09 19:43:00,46.2,33.9,30.06,NNE,23,12.0,16.0,62,0.00,,,0.10,Wunderground v.1.13,2013-05-10 00:43:00,
2013-05-09 19:45:00,46.2,33.9,30.06,NE,45,12.0,16.0,62,0.00,,,0.10,Wunderground v.1.13,2013-05-10 00:45:00,
2013-05-09 19:47:00,46.2,33.9,30.06,NE,45,10.0,14.0,62,0.00,,,0.10,Wunderground v.1.13,2013-05-10 00:47:00,
2013-05-09 19:49:00,46.2,33.5,30.06,NNE,23,11.0,14.0,61,0.00,,,0.10,Wunderground v.1.13,2013-05-10 00:49:00,
2013-05-09 19:51:00,46.2,34.3,30.06,NE,45,11.0,15.0,63,0.00,,,0.10,Wunderground v.1.13,2013-05-10 00:51:00,
2013-05-09 19:53:00,46.2,33.5,30.06,NE,45,12.0,18.0,61,0.00,,,0.10,Wunderground v.1.13,2013-05-10 00:53:00,
2013-05-09 19:55:00,46.1,33.4,30.07,NNE,23,11.0,14.0,61,0.00,,,0.10,Wunderground v.1.13,2013-05-10 00:55:00,
2013-05-09 19:57:00,46.1,33.8,30.06,NE,45,10.0,14.0,62,0.00,,,0.10,Wunderground v.1.13,2013-05-10 00:57:00,
2013-05-09 19:59:00,46.1,34.2,30.06,NE,45,10.0,13.0,63,0.00,,,0.10,Wunderground v.1.13,2013-05-10 00:59:00,
2013-05-09 20:01:00,46.0,34.1,30.07,NE,45,10.0,14.0,63,0.00,,,0.10,Wunderground v.1.13,2013-05-10 01:01:00,
2013-05-09 20:03:00,46.0,34.1,30.07,NE,45,11.0,14.0,63,0.00,,,0.10,Wunderground v.1.13,2013-05-10 01:03:00,
2013-05-09 20:05:00,46.0,34.1,30.07,North,0,9.0,14.0,63,0.00,,,0.10,Wunderground v.1.13,2013-05-10 01:05:00,
2013-05-09 20:07:00,45.9,33.6,30.07,NNE,23,11.0,13.0,62,0.00,,,0.10,Wunderground v.1.13,2013-05-10 01:07:00,
2013-05-09 20:09:00,45.9,34.0,30.07,NNE,23,11.0,15.0,63,0.00,,,0.10,Wunderground v.1.13,2013-05-10 01:09:00,
2013-05-09 20:11:00,45.8,33.5,30.07,NNE,23,11.0,15.0,62,0.00,,,0.10,Wunderground v.1.13,2013-05-10 01:11:00,
2013-05-09 20:13:00,45.8,33.9,30.07,NE,45,12.0,13.0,63,0.00,,,0.10,Wunderground v.1.13,2013-05-10 01:13:00,
2013-05-09 20:15:00,45.7,33.8,30.07,NE,45,9.0,13.0,63,0.00,,,0.10,Wunderground v.1.13,2013-05-10 01:15:00,
2013-05-09 20:17:00,45.7,33.8,30.07,NE,45,13.0,16.0,63,0.00,,,0.10,Wunderground v.1.13,2013-05-10 01:17:00,
2013-05-09 20:19:00,45.6,33.3,30.07,NE,45,12.0,14.0,62,0.00,,,0.10,Wunderground v.1.13,2013-05-10 01:19:00,
2013-05-09 20:21:00,45.6,33.3,30.07,NE,45,9.0,11.0,62,0.00,,,0.10,Wunderground v.1.13,2013-05-10 01:21:00,
2013-05-09 20:23:00,45.6,33.7,30.07,NE,45,8.0,9.0,63,0.00,,,0.10,Wunderground v.1.13,2013-05-10 01:23:00,
2013-05-09 20:25:00,45.6,34.1,30.07,NNE,23,8.0,10.0,64,0.00,,,0.10,Wunderground v.1.13,2013-05-10 01:25:00,
2013-05-09 20:27:00,45.6,34.1,30.07,NE,45,9.0,12.0,64,0.00,,,0.10,Wunderground v.1.13,2013-05-10 01:27:00,
2013-05-09 20:29:00,45.5,34.0,30.07,NNE,23,13.0,18.0,64,0.00,,,0.10,Wunderground v.1.13,2013-05-10 01:29:00,
2013-05-09 20:31:00,45.5,34.0,30.07,NE,45,11.0,13.0,64,0.00,,,0.10,Wunderground v.1.13,2013-05-10 01:31:00,
2013-05-09 20:33:00,45.5,33.6,30.07,NE,45,12.0,15.0,63,0.00,,,0.10,Wunderground v.1.13,2013-05-10 01:33:00,
2013-05-09 20:35:00,45.5,33.6,30.08,NNE,23,9.0,12.0,63,0.00,,,0.10,Wunderground v.1.13,2013-05-10 01:35:00,
2013-05-09 20:37:00,45.4,33.9,30.08,NNE,23,7.0,9.0,64,0.00,,,0.10,Wunderground v.1.13,2013-05-10 01:37:00,
2013-05-09 20:39:00,45.4,33.9,30.08,NNE,23,9.0,13.0,64,0.00,,,0.10,Wunderground v.1.13,2013-05-10 01:39:00,
2013-05-09 20:41:00,45.4,33.5,30.08,NNE,23,9.0,11.0,63,0.00,,,0.10,Wunderground v.1.13,2013-05-10 01:41:00,
2013-05-09 20:43:00,45.4,33.9,30.08,NE,45,8.0,11.0,64,0.00,,,0.10,Wunderground v.1.13,2013-05-10 01:43:00,
2013-05-09 20:45:00,45.4,33.5,30.08,NNE,23,8.0,11.0,63,0.00,,,0.10,Wunderground v.1.13,2013-05-10 01:45:00,
2013-05-09 20:47:00,45.3,33.8,30.08,NNE,23,9.0,12.0,64,0.00,,,0.10,Wunderground v.1.13,2013-05-10 01:47:00,
2013-05-09 20:49:00,45.3,33.8,30.08,NE,45,9.0,11.0,64,0.00,,,0.10,Wunderground v.1.13,2013-05-10 01:49:00,
2013-05-09 20:51:00,45.3,33.8,30.08,NNE,23,8.0,12.0,64,0.00,,,0.10,Wunderground v.1.13,2013-05-10 01:51:00,
2013-05-09 20:53:00,45.2,33.3,30.08,NE,45,8.0,10.0,63,0.00,,,0.10,Wunderground v.1.13,2013-05-10 01:53:00,
2013-05-09 20:55:00,45.2,33.7,30.08,NNE,23,9.0,11.0,64,0.00,,,0.10,Wunderground v.1.13,2013-05-10 01:55:00,
2013-05-09 20:57:00,45.2,33.7,30.08,NE,45,8.0,11.0,64,0.00,,,0.10,Wunderground v.1.13,2013-05-10 01:57:00,
2013-05-09 20:59:00,45.2,33.7,30.08,NNE,23,8.0,11.0,64,0.00,,,0.10,Wunderground v.1.13,2013-05-10 01:59:00,
2013-05-09 21:01:00,45.2,34.1,30.08,NNE,23,9.0,13.0,65,0.00,,,0.10,Wunderground v.1.13,2013-05-10 02:01:00,
2013-05-09 21:03:00,45.1,33.6,30.08,NE,45,10.0,13.0,64,0.00,,,0.10,Wunderground v.1.13,2013-05-10 02:03:00,
2013-05-09 21:05:00,45.1,33.6,30.08,NE,45,8.0,10.0,64,0.00,,,0.10,Wunderground v.1.13,2013-05-10 02:05:00,
2013-05-09 21:07:00,45.1,34.0,30.08,NNE,23,8.0,11.0,65,0.00,,,0.10,Wunderground v.1.13,2013-05-10 02:07:00,
2013-05-09 21:09:00,45.0,33.5,30.08,NE,45,7.0,8.0,64,0.00,,,0.10,Wunderground v.1.13,2013-05-10 02:09:00,
2013-05-09 21:11:00,45.0,33.9,30.08,NNE,23,9.0,14.0,65,0.00,,,0.10,Wunderground v.1.13,2013-05-10 02:11:00,
2013-05-09 21:13:00,45.0,33.9,30.08,NNE,23,8.0,10.0,65,0.00,,,0.10,Wunderground v.1.13,2013-05-10 02:13:00,
2013-05-09 21:15:00,44.9,33.8,30.08,NE,45,7.0,8.0,65,0.00,,,0.10,Wunderground v.1.13,2013-05-10 02:15:00,
2013-05-09 21:17:00,44.9,33.5,30.08,NE,45,8.0,9.0,64,0.00,,,0.10,Wunderground v.1.13,2013-05-10 02:17:00,
2013-05-09 21:19:00,44.8,33.4,30.08,NE,45,8.0,11.0,64,0.00,,,0.10,Wunderground v.1.13,2013-05-10 02:19:00,
2013-05-09 21:21:00,44.8,33.4,30.08,NNE,23,9.0,12.0,64,0.00,,,0.10,Wunderground v.1.13,2013-05-10 02:21:00,
2013-05-09 21:23:00,44.8,33.4,30.08,NE,45,7.0,9.0,64,0.00,,,0.10,Wunderground v.1.13,2013-05-10 02:23:00,
2013-05-09 21:25:00,44.8,33.0,30.08,NNE,23,8.0,12.0,63,0.00,,,0.10,Wunderground v.1.13,2013-05-10 02:25:00,
2013-05-09 21:27:00,44.8,33.0,30.09,NE,45,9.0,11.0,63,0.00,,,0.10,Wunderground v.1.13,2013-05-10 02:27:00,
2013-05-09 21:29:00,44.8,32.6,30.09,NE,45,9.0,12.0,62,0.00,,,0.10,Wunderground v.1.13,2013-05-10 02:29:00,
2013-05-09 21:31:00,44.8,33.0,30.09,NNE,23,10.0,13.0,63,0.00,,,0.10,Wunderground v.1.13,2013-05-10 02:31:00,
2013-05-09 21:33:00,44.8,32.6,30.09,NE,45,10.0,14.0,62,0.00,,,0.10,Wunderground v.1.13,2013-05-10 02:33:00,
2013-05-09 21:35:00,44.9,33.1,30.09,NE,45,10.0,13.0,63,0.00,,,0.10,Wunderground v.1.13,2013-05-10 02:35:00,
2013-05-09 21:37:00,44.9,32.7,30.09,NNE,23,10.0,13.0,62,0.00,,,0.10,Wunderground v.1.13,2013-05-10 02:37:00,
2013-05-09 21:39:00,44.9,32.3,30.09,NE,45,12.0,15.0,61,0.00,,,0.10,Wunderground v.1.13,2013-05-10 02:39:00,
2013-05-09 21:41:00,44.9,31.8,30.09,NNE,23,10.0,13.0,60,0.00,,,0.10,Wunderground v.1.13,2013-05-10 02:41:00,
2013-05-09 21:43:00,44.9,31.4,30.09,NNE,23,11.0,18.0,59,0.00,,,0.10,Wunderground v.1.13,2013-05-10 02:43:00,
2013-05-09 21:45:00,44.9,31.4,30.09,NE,45,9.0,12.0,59,0.00,,,0.10,Wunderground v.1.13,2013-05-10 02:45:00,
2013-05-09 21:47:00,44.9,31.4,30.09,NNE,23,10.0,13.0,59,0.00,,,0.10,Wunderground v.1.13,2013-05-10 02:47:00,
2013-05-09 21:49:00,44.9,31.4,30.09,NE,45,10.0,13.0,59,0.00,,,0.10,Wunderground v.1.13,2013-05-10 02:49:00,
2013-05-09 21:51:00,44.9,31.0,30.09,NNE,23,8.0,11.0,58,0.00,,,0.10,Wunderground v.1.13,2013-05-10 02:51:00,
2013-05-09 21:53:00,44.9,31.0,30.09,NE,45,10.0,12.0,58,0.00,,,0.10,Wunderground v.1.13,2013-05-10 02:53:00,
2013-05-09 21:55:00,44.9,31.0,30.09,NE,45,9.0,11.0,58,0.00,,,0.10,Wunderground v.1.13,2013-05-10 02:55:00,
2013-05-09 21:57:00,44.9,31.0,30.09,NE,45,10.0,13.0,58,0.00,,,0.10,Wunderground v.1.13,2013-05-10 02:57:00,
2013-05-09 21:59:00,44.8,30.5,30.09,NNE,23,10.0,15.0,57,0.00,,,0.10,Wunderground v.1.13,2013-05-10 02:59:00,
2013-05-09 22:01:00,44.8,30.9,30.09,NNE,23,9.0,11.0,58,0.00,,,0.10,Wunderground v.1.13,2013-05-10 03:01:00,
2013-05-09 22:03:00,44.8,30.9,30.09,NNE,23,8.0,10.0,58,0.00,,,0.10,Wunderground v.1.13,2013-05-10 03:03:00,
2013-05-09 22:05:00,44.7,31.2,30.09,NE,45,8.0,10.0,59,0.00,,,0.10,Wunderground v.1.13,2013-05-10 03:05:00,
2013-05-09 22:07:00,44.7,30.8,30.09,NE,45,9.0,11.0,58,0.00,,,0.10,Wunderground v.1.13,2013-05-10 03:07:00,
2013-05-09 22:09:00,44.6,31.1,30.09,NE,45,8.0,10.0,59,0.00,,,0.10,Wunderground v.1.13,2013-05-10 03:09:00,
2013-05-09 22:11:00,44.6,30.7,30.09,NNE,23,11.0,13.0,58,0.00,,,0.10,Wunderground v.1.13,2013-05-10 03:11:00,
2013-05-09 22:13:00,44.6,30.7,30.09,NNE,23,9.0,13.0,58,0.00,,,0.10,Wunderground v.1.13,2013-05-10 03:13:00,
2013-05-09 22:15:00,44.5,30.6,30.09,NE,45,9.0,12.0,58,0.00,,,0.10,Wunderground v.1.13,2013-05-10 03:15:00,
2013-05-09 22:17:00,44.5,30.6,30.09,NNE,23,8.0,10.0,58,0.00,,,0.10,Wunderground v.1.13,2013-05-10 03:17:00,
2013-05-09 22:19:00,44.4,30.1,30.10,NE,45,9.0,11.0,57,0.00,,,0.10,Wunderground v.1.13,2013-05-10 03:19:00,
2013-05-09 22:21:00,44.4,30.1,30.09,NE,45,11.0,14.0,57,0.00,,,0.10,Wunderground v.1.13,2013-05-10 03:21:00,
2013-05-09 22:23:00,44.3,30.0,30.10,NNE,23,10.0,12.0,57,0.00,,,0.10,Wunderground v.1.13,2013-05-10 03:23:00,
2013-05-09 22:25:00,44.3,29.6,30.10,NNE,23,8.0,13.0,56,0.00,,,0.10,Wunderground v.1.13,2013-05-10 03:25:00,
2013-05-09 22:27:00,44.2,30.3,30.10,NNE,23,9.0,11.0,58,0.00,,,0.10,Wunderground v.1.13,2013-05-10 03:27:00,
2013-05-09 22:29:00,44.2,29.9,30.10,NNE,23,8.0,9.0,57,0.00,,,0.10,Wunderground v.1.13,2013-05-10 03:29:00,
2013-05-09 22:31:00,44.1,29.8,30.10,NNE,23,8.0,10.0,57,0.00,,,0.10,Wunderground v.1.13,2013-05-10 03:31:00,
2013-05-09 22:33:00,44.0,29.7,30.10,NE,45,11.0,14.0,57,0.00,,,0.10,Wunderground v.1.13,2013-05-10 03:33:00,
2013-05-09 22:35:00,44.0,29.7,30.10,NE,45,9.0,12.0,57,0.00,,,0.10,Wunderground v.1.13,2013-05-10 03:35:00,
2013-05-09 22:37:00,44.0,29.7,30.10,NE,45,8.0,11.0,57,0.00,,,0.10,Wunderground v.1.13,2013-05-10 03:37:00,
2013-05-09 22:39:00,43.9,30.1,30.10,NE,45,8.0,11.0,58,0.00,,,0.10,Wunderground v.1.13,2013-05-10 03:39:00,
2013-05-09 22:41:00,43.8,30.0,30.10,NNE,23,7.0,10.0,58,0.00,,,0.10,Wunderground v.1.13,2013-05-10 03:41:00,
2013-05-09 22:43:00,43.7,29.5,30.10,NNE,23,9.0,12.0,57,0.00,,,0.10,Wunderground v.1.13,2013-05-10 03:43:00,
2013-05-09 22:45:00,43.7,29.5,30.10,NNE,23,9.0,13.0,57,0.00,,,0.10,Wunderground v.1.13,2013-05-10 03:45:00,
2013-05-09 22:47:00,43.7,29.9,30.10,NE,45,8.0,9.0,58,0.00,,,0.10,Wunderground v.1.13,2013-05-10 03:47:00,
2013-05-09 22:49:00,43.6,29.4,30.10,NE,45,10.0,13.0,57,0.00,,,0.10,Wunderground v.1.13,2013-05-10 03:49:00,
2013-05-09 22:51:00,43.6,29.8,30.10,NE,45,8.0,10.0,58,0.00,,,0.10,Wunderground v.1.13,2013-05-10 03:51:00,
2013-05-09 22:53:00,43.6,29.4,30.10,NNE,23,8.0,9.0,57,0.00,,,0.10,Wunderground v.1.13,2013-05-10 03:53:00,
2013-05-09 22:55:00,43.6,29.4,30.10,NNE,23,9.0,11.0,57,0.00,,,0.10,Wunderground v.1.13,2013-05-10 03:55:00,
2013-05-09 22:57:00,43.5,29.3,30.10,NNE,23,8.0,12.0,57,0.00,,,0.10,Wunderground v.1.13,2013-05-10 03:57:00,
2013-05-09 22:59:00,43.4,28.3,30.10,NE,45,9.0,11.0,55,0.00,,,0.10,Wunderground v.1.13,2013-05-10 03:59:00,
2013-05-09 23:01:00,43.4,29.2,30.10,NNE,23,9.0,13.0,57,0.00,,,0.10,Wunderground v.1.13,2013-05-10 04:01:00,
2013-05-09 23:03:00,43.4,28.7,30.10,NE,45,10.0,12.0,56,0.00,,,0.10,Wunderground v.1.13,2013-05-10 04:03:00,
2013-05-09 23:05:00,43.4,29.2,30.10,North,0,8.0,12.0,57,0.00,,,0.10,Wunderground v.1.13,2013-05-10 04:05:00,
2013-05-09 23:07:00,43.3,28.6,30.10,NE,45,9.0,11.0,56,0.00,,,0.10,Wunderground v.1.13,2013-05-10 04:07:00,
2013-05-09 23:09:00,43.3,29.1,30.10,NE,45,7.0,9.0,57,0.00,,,0.10,Wunderground v.1.13,2013-05-10 04:09:00,
2013-05-09 23:11:00,43.3,29.1,30.10,NNE,23,9.0,11.0,57,0.00,,,0.10,Wunderground v.1.13,2013-05-10 04:11:00,
2013-05-09 23:13:00,43.2,29.0,30.10,NNE,23,7.0,10.0,57,0.00,,,0.10,Wunderground v.1.13,2013-05-10 04:13:00,
2013-05-09 23:15:00,43.2,29.0,30.10,NE,45,7.0,9.0,57,0.00,,,0.10,Wunderground v.1.13,2013-05-10 04:15:00,
2013-05-09 23:17:00,43.1,28.9,30.10,NNE,23,4.0,6.0,57,0.00,,,0.10,Wunderground v.1.13,2013-05-10 04:17:00,
2013-05-09 23:19:00,43.1,29.3,30.10,NNE,23,5.0,7.0,58,0.00,,,0.10,Wunderground v.1.13,2013-05-10 04:19:00,
2013-05-09 23:21:00,43.0,29.2,30.10,North,0,6.0,7.0,58,0.00,,,0.10,Wunderground v.1.13,2013-05-10 04:21:00,
2013-05-09 23:23:00,43.0,28.8,30.10,NE,45,7.0,11.0,57,0.00,,,0.10,Wunderground v.1.13,2013-05-10 04:23:00,
2013-05-09 23:25:00,42.9,28.7,30.10,North,0,7.0,9.0,57,0.00,,,0.10,Wunderground v.1.13,2013-05-10 04:25:00,
2013-05-09 23:27:00,43.0,29.2,30.10,NNE,23,9.0,13.0,58,0.00,,,0.10,Wunderground v.1.13,2013-05-10 04:27:00,
2013-05-09 23:29:00,43.1,28.9,30.10,NNE,23,11.0,13.0,57,0.00,,,0.10,Wunderground v.1.13,2013-05-10 04:29:00,
2013-05-09 23:31:00,43.1,28.9,30.10,NNE,23,8.0,9.0,57,0.00,,,0.10,Wunderground v.1.13,2013-05-10 04:31:00,
2013-05-09 23:33:00,43.2,29.4,30.10,NNE,23,6.0,7.0,58,0.00,,,0.10,Wunderground v.1.13,2013-05-10 04:33:00,
2013-05-09 23:35:00,43.1,28.9,30.10,NNE,23,4.0,6.0,57,0.00,,,0.10,Wunderground v.1.13,2013-05-10 04:35:00,
2013-05-09 23:37:00,43.1,29.3,30.10,NNE,23,6.0,8.0,58,0.00,,,0.10,Wunderground v.1.13,2013-05-10 04:37:00,
2013-05-09 23:39:00,43.0,29.2,30.10,NNE,23,5.0,7.0,58,0.00,,,0.10,Wunderground v.1.13,2013-05-10 04:39:00,
2013-05-09 23:41:00,42.9,29.5,30.10,NNE,23,8.0,10.0,59,0.00,,,0.10,Wunderground v.1.13,2013-05-10 04:41:00,
2013-05-09 23:43:00,42.9,30.0,30.10,NNE,23,7.0,10.0,60,0.00,,,0.10,Wunderground v.1.13,2013-05-10 04:43:00,
2013-05-09 23:45:00,42.8,29.5,30.10,NNE,23,8.0,12.0,59,0.00,,,0.10,Wunderground v.1.13,2013-05-10 04:45:00,
2013-05-09 23:47:00,42.8,29.5,30.10,NE,45,6.0,9.0,59,0.00,,,0.10,Wunderground v.1.13,2013-05-10 04:47:00,
2013-05-09 23:49:00,42.7,29.8,30.10,NNE,23,6.0,9.0,60,0.00,,,0.10,Wunderground v.1.13,2013-05-10 04:49:00,
2013-05-09 23:51:00,42.7,29.8,30.10,North,0,5.0,9.0,60,0.00,,,0.10,Wunderground v.1.13,2013-05-10 04:51:00,
2013-05-09 23:53:00,42.6,29.3,30.10,NNE,23,6.0,8.0,59,0.00,,,0.10,Wunderground v.1.13,2013-05-10 04:53:00,
2013-05-09 23:55:00,42.5,29.6,30.10,North,0,8.0,13.0,60,0.00,,,0.10,Wunderground v.1.13,2013-05-10 04:55:00,
2013-05-09 23:57:00,42.5,29.2,30.10,NNE,23,10.0,13.0,59,0.00,,,0.10,Wunderground v.1.13,2013-05-10 04:57:00,
2013-05-09 23:59:00,42.5,28.8,30.10,NE,45,10.0,14.0,58,0.00,,,0.10,Wunderground v.1.13,2013-05-10 04:59:00,